Wetterdaten: Montag, 01.01.2018
Datum Zeit Temp. Aussen Temp. o. S. +5cm Feuchte Auss BlattFeu 1 Luftdruck Regen Sonnenschein Regendauer Solar Windben Empfang
01.01.2018 00:00 7,8 C 6,7 C 5,6 C 91 % 15 lf 997,7 hPa 0,0 l/m 0 min 0 min 0 W/m 31,5 km/h (5 Bft) 97,87 %
01.01.2018 00:02 7,8 C 6,7 C 5,6 C 91 % 15 lf 997,7 hPa 0,0 l/m 0 min 0 min 0 W/m 33,8 km/h (5 Bft) 97,67 %
01.01.2018 00:04 7,8 C 6,7 C 5,6 C 91 % 15 lf 997,8 hPa 0,0 l/m 0 min 0 min 0 W/m 33,8 km/h (5 Bft) 97,87 %
01.01.2018 00:08 7,7 C 6,7 C 5,6 C 91 % 15 lf 997,9 hPa 0,0 l/m 0 min 0 min 0 W/m 42,8 km/h (6 Bft) 96,81 %
01.01.2018 00:10 7,7 C 6,7 C 5,6 C 91 % 15 lf 997,9 hPa 0,0 l/m 0 min 2 min 0 W/m 29,3 km/h (5 Bft) 97,37 %
01.01.2018 00:12 7,7 C 6,7 C 5,6 C 91 % 15 lf 998,0 hPa 0,0 l/m 0 min 0 min 0 W/m 45,1 km/h (6 Bft) 93,48 %
01.01.2018 00:14 7,7 C 6,7 C 5,6 C 91 % 15 lf 997,9 hPa 0,0 l/m 0 min 2 min 0 W/m 33,8 km/h (5 Bft) 97,87 %
01.01.2018 00:16 7,7 C 6,7 C 5,6 C 91 % 15 lf 997,9 hPa 0,0 l/m 0 min 0 min 0 W/m 27,0 km/h (4 Bft) 95,74 %
01.01.2018 00:18 7,7 C 6,7 C 5,6 C 91 % 15 lf 998,0 hPa 0,0 l/m 0 min 0 min 0 W/m 31,5 km/h (5 Bft) 97,87 %
01.01.2018 00:20 7,7 C 6,7 C 5,6 C 91 % 15 lf 998,0 hPa 0,0 l/m 0 min 0 min 0 W/m 38,3 km/h (5 Bft) 96,55 %
01.01.2018 00:22 7,8 C 6,7 C 5,6 C 91 % 15 lf 998,0 hPa 0,0 l/m 0 min 0 min 0 W/m 33,8 km/h (5 Bft) 97,87 %
01.01.2018 00:24 7,8 C 7,2 C 5,6 C 91 % 15 lf 998,1 hPa 0,0 l/m 0 min 2 min 0 W/m 51,8 km/h (7 Bft) 97,14 %
01.01.2018 00:26 7,8 C 7,2 C 5,6 C 90 % 14 lf 998,1 hPa 0,0 l/m 0 min 0 min 0 W/m 40,6 km/h (6 Bft) 97,87 %
01.01.2018 00:28 7,9 C 7,2 C 5,6 C 90 % 14 lf 998,1 hPa 0,0 l/m 0 min 0 min 0 W/m 51,8 km/h (7 Bft) 95,74 %
01.01.2018 00:30 7,9 C 7,2 C 5,6 C 90 % 13 lf 998,1 hPa 0,0 l/m 0 min 2 min 0 W/m 40,6 km/h (6 Bft) 97,87 %
01.01.2018 00:32 8,0 C 7,2 C 6,1 C 90 % 10 lf 998,2 hPa 0,0 l/m 0 min 2 min 0 W/m 40,6 km/h (6 Bft) 97,87 %
01.01.2018 00:34 8,1 C 7,2 C 6,1 C 90 % 6 lf 998,3 hPa 0,0 l/m 0 min 0 min 0 W/m 51,8 km/h (7 Bft) 95,74 %
01.01.2018 00:38 8,2 C 7,2 C 6,1 C 89 % 2 lf 998,4 hPa 0,0 l/m 0 min 0 min 0 W/m 42,8 km/h (6 Bft) 98,92 %
01.01.2018 00:40 8,2 C 7,2 C 6,1 C 89 % 1 lf 998,4 hPa 0,0 l/m 0 min 0 min 0 W/m 45,1 km/h (6 Bft) 97,87 %
01.01.2018 00:42 8,2 C 7,2 C 6,1 C 89 % 0 lf 998,4 hPa 0,0 l/m 0 min 0 min 0 W/m 31,5 km/h (5 Bft) 97,87 %
01.01.2018 00:44 8,3 C 7,2 C 6,1 C 89 % 0 lf 998,4 hPa 0,0 l/m 0 min 0 min 0 W/m 38,3 km/h (5 Bft) 100,00 %
01.01.2018 00:46 8,3 C 7,2 C 6,1 C 88 % 0 lf 998,4 hPa 0,0 l/m 0 min 0 min 0 W/m 24,8 km/h (4 Bft) 97,87 %
01.01.2018 00:48 8,3 C 7,8 C 6,1 C 88 % 1 lf 998,4 hPa 0,0 l/m 0 min 2 min 0 W/m 31,5 km/h (5 Bft) 97,83 %
01.01.2018 00:50 8,3 C 7,8 C 6,1 C 88 % 0 lf 998,5 hPa 0,0 l/m 0 min 0 min 0 W/m 31,5 km/h (5 Bft) 98,31 %
01.01.2018 00:52 8,3 C 7,8 C 6,1 C 88 % 0 lf 998,5 hPa 0,0 l/m 0 min 0 min 0 W/m 33,8 km/h (5 Bft) 97,14 %
01.01.2018 00:54 8,3 C 7,8 C 6,1 C 88 % 0 lf 998,5 hPa 0,0 l/m 0 min 0 min 0 W/m 33,8 km/h (5 Bft) 96,49 %
01.01.2018 00:56 8,3 C 7,8 C 6,1 C 88 % 1 lf 998,5 hPa 0,0 l/m 0 min 0 min 0 W/m 38,3 km/h (5 Bft) 93,48 %
01.01.2018 00:58 8,3 C 8,3 C 5,6 C 88 % 0 lf 998,6 hPa 0,0 l/m 0 min 2 min 0 W/m 47,3 km/h (6 Bft) 97,87 %
01.01.2018 01:00 8,3 C 8,3 C 6,1 C 88 % 0 lf 998,6 hPa 0,0 l/m 0 min 2 min 0 W/m 33,8 km/h (5 Bft) 97,87 %
01.01.2018 01:02 8,3 C 8,3 C 6,1 C 87 % 3 lf 998,7 hPa 0,0 l/m 0 min 2 min 0 W/m 45,1 km/h (6 Bft) 95,74 %
01.01.2018 01:04 8,3 C 8,3 C 5,6 C 87 % 9 lf 998,8 hPa 0,0 l/m 0 min 2 min 0 W/m 40,6 km/h (6 Bft) 95,74 %
01.01.2018 01:06 8,4 C 7,8 C 5,6 C 87 % 10 lf 998,6 hPa 0,0 l/m 0 min 2 min 0 W/m 40,6 km/h (6 Bft) 95,74 %
01.01.2018 01:08 8,4 C 7,8 C 5,6 C 87 % 10 lf 998,6 hPa 0,0 l/m 0 min 2 min 0 W/m 31,5 km/h (5 Bft) 95,65 %
01.01.2018 01:10 8,3 C 7,8 C 5,6 C 87 % 8 lf 998,7 hPa 0,0 l/m 0 min 2 min 0 W/m 36,0 km/h (5 Bft) 97,87 %
01.01.2018 01:12 8,3 C 7,8 C 5,6 C 87 % 6 lf 998,7 hPa 0,2 l/m 0 min 2 min 0 W/m 40,6 km/h (6 Bft) 95,74 %
01.01.2018 01:14 8,3 C 7,8 C 5,6 C 87 % 4 lf 998,7 hPa 0,0 l/m 0 min 2 min 0 W/m 33,8 km/h (5 Bft) 97,87 %
01.01.2018 01:16 8,3 C 7,8 C 5,6 C 86 % 3 lf 998,6 hPa 0,0 l/m 0 min 2 min 0 W/m 33,8 km/h (5 Bft) 91,49 %
01.01.2018 01:18 8,3 C 7,8 C 5,6 C 86 % 2 lf 998,6 hPa 0,0 l/m 0 min 2 min 0 W/m 38,3 km/h (5 Bft) 95,74 %
01.01.2018 01:20 8,3 C 7,8 C 5,6 C 86 % 1 lf 998,6 hPa 0,0 l/m 0 min 2 min 0 W/m 42,8 km/h (6 Bft) 95,65 %
01.01.2018 01:22 8,2 C 7,8 C 5,6 C 86 % 0 lf 998,6 hPa 0,0 l/m 0 min 2 min 0 W/m 20,3 km/h (4 Bft) 93,62 %
01.01.2018 01:24 8,2 C 7,8 C 5,0 C 85 % 0 lf 998,4 hPa 0,0 l/m 0 min 2 min 0 W/m 45,1 km/h (6 Bft) 91,49 %
01.01.2018 01:26 8,2 C 7,8 C 5,0 C 85 % 0 lf 998,6 hPa 0,0 l/m 0 min 2 min 0 W/m 42,8 km/h (6 Bft) 95,74 %
01.01.2018 01:28 8,2 C 7,8 C 5,0 C 85 % 0 lf 998,6 hPa 0,0 l/m 0 min 2 min 0 W/m 38,3 km/h (5 Bft) 87,23 %
01.01.2018 01:30 8,2 C 7,8 C 5,0 C 85 % 0 lf 998,6 hPa 0,0 l/m 0 min 2 min 0 W/m 38,3 km/h (5 Bft) 93,62 %
01.01.2018 01:32 8,1 C 7,8 C 5,0 C 85 % 0 lf 998,5 hPa 0,0 l/m 0 min 2 min 0 W/m 36,0 km/h (5 Bft) 92,68 %
01.01.2018 01:34 8,1 C 7,8 C 5,0 C 85 % 0 lf 998,6 hPa 0,0 l/m 0 min 2 min 0 W/m 47,3 km/h (6 Bft) 95,74 %
01.01.2018 01:36 8,1 C 7,8 C 5,0 C 85 % 0 lf 998,4 hPa 0,0 l/m 0 min 2 min 0 W/m 31,5 km/h (5 Bft) 91,30 %
01.01.2018 01:38 8,1 C 7,8 C 5,0 C 85 % 0 lf 998,3 hPa 0,0 l/m 0 min 2 min 0 W/m 40,6 km/h (6 Bft) 91,49 %
01.01.2018 01:40 8,1 C 7,8 C 5,0 C 85 % 0 lf 998,2 hPa 0,0 l/m 0 min 2 min 0 W/m 33,8 km/h (5 Bft) 95,74 %
01.01.2018 01:42 8,0 C 7,8 C 5,0 C 85 % 0 lf 998,4 hPa 0,0 l/m 0 min 2 min 0 W/m 36,0 km/h (5 Bft) 95,74 %
01.01.2018 01:44 8,0 C 7,8 C 5,0 C 85 % 0 lf 998,3 hPa 0,0 l/m 0 min 2 min 0 W/m 51,8 km/h (7 Bft) 95,74 %
01.01.2018 01:46 8,0 C 7,8 C 5,0 C 85 % 0 lf 998,2 hPa 0,0 l/m 0 min 2 min 0 W/m 33,8 km/h (5 Bft) 93,62 %
01.01.2018 01:48 8,0 C 7,8 C 5,0 C 85 % 0 lf 998,2 hPa 0,0 l/m 0 min 2 min 0 W/m 49,6 km/h (6 Bft) 95,65 %
01.01.2018 01:50 8,1 C 7,8 C 5,0 C 85 % 0 lf 998,2 hPa 0,0 l/m 0 min 2 min 0 W/m 42,8 km/h (6 Bft) 95,74 %
01.01.2018 01:52 8,1 C 7,8 C 5,6 C 84 % 0 lf 998,2 hPa 0,0 l/m 0 min 2 min 0 W/m 56,3 km/h (7 Bft) 89,36 %
01.01.2018 01:54 8,1 C 7,8 C 5,0 C 84 % 0 lf 998,4 hPa 0,0 l/m 0 min 2 min 0 W/m 45,1 km/h (6 Bft) 93,62 %
01.01.2018 01:56 8,1 C 7,8 C 5,0 C 84 % 0 lf 998,4 hPa 0,0 l/m 0 min 2 min 0 W/m 49,6 km/h (6 Bft) 95,74 %
01.01.2018 01:58 8,1 C 7,8 C 5,0 C 84 % 0 lf 998,5 hPa 0,0 l/m 0 min 2 min 0 W/m 54,1 km/h (7 Bft) 95,65 %
01.01.2018 02:00 8,1 C 7,8 C 5,0 C 84 % 0 lf 998,5 hPa 0,0 l/m 0 min 2 min 0 W/m 51,8 km/h (7 Bft) 95,74 %
01.01.2018 02:02 8,1 C 7,8 C 5,0 C 84 % 0 lf 998,4 hPa 0,0 l/m 0 min 2 min 0 W/m 45,1 km/h (6 Bft) 93,62 %
01.01.2018 02:04 8,1 C 7,8 C 5,0 C 84 % 0 lf 998,4 hPa 0,0 l/m 0 min 2 min 0 W/m 54,1 km/h (7 Bft) 95,74 %
01.01.2018 02:08 8,1 C 7,8 C 5,0 C 83 % 0 lf 998,5 hPa 0,0 l/m 0 min 4 min 0 W/m 45,1 km/h (6 Bft) 94,68 %
01.01.2018 02:10 8,1 C 7,8 C 5,0 C 83 % 0 lf 998,4 hPa 0,0 l/m 0 min 0 min 0 W/m 36,0 km/h (5 Bft) 95,65 %
01.01.2018 02:12 8,0 C 7,8 C 5,0 C 83 % 0 lf 998,5 hPa 0,0 l/m 0 min 0 min 0 W/m 40,6 km/h (6 Bft) 93,62 %
01.01.2018 02:14 8,0 C 7,8 C 5,0 C 84 % 0 lf 998,5 hPa 0,0 l/m 0 min 0 min 0 W/m 40,6 km/h (6 Bft) 95,74 %
01.01.2018 02:16 7,9 C 7,8 C 5,0 C 84 % 0 lf 998,4 hPa 0,0 l/m 0 min 0 min 0 W/m 47,3 km/h (6 Bft) 95,74 %
01.01.2018 02:18 7,9 C 7,8 C 5,6 C 84 % 0 lf 998,5 hPa 0,0 l/m 0 min 0 min 0 W/m 45,1 km/h (6 Bft) 93,62 %
01.01.2018 02:20 7,9 C 7,2 C 5,6 C 84 % 0 lf 998,5 hPa 0,0 l/m 0 min 0 min 0 W/m 33,8 km/h (5 Bft) 93,62 %
01.01.2018 02:22 7,8 C 7,2 C 5,6 C 84 % 0 lf 998,6 hPa 0,0 l/m 0 min 0 min 0 W/m 38,3 km/h (5 Bft) 97,83 %
01.01.2018 02:24 7,8 C 7,2 C 5,6 C 84 % 0 lf 998,6 hPa 0,0 l/m 0 min 0 min 0 W/m 42,8 km/h (6 Bft) 95,74 %
01.01.2018 02:26 7,8 C 7,2 C 5,6 C 84 % 0 lf 998,7 hPa 0,0 l/m 0 min 0 min 0 W/m 40,6 km/h (6 Bft) 95,74 %
01.01.2018 02:28 7,8 C 7,2 C 5,6 C 84 % 0 lf 998,6 hPa 0,0 l/m 0 min 0 min 0 W/m 47,3 km/h (6 Bft) 95,74 %
01.01.2018 02:30 7,7 C 7,2 C 5,0 C 84 % 0 lf 998,6 hPa 0,0 l/m 0 min 0 min 0 W/m 31,5 km/h (5 Bft) 97,87 %
01.01.2018 02:32 7,7 C 7,2 C 5,6 C 84 % 0 lf 998,6 hPa 0,0 l/m 0 min 0 min 0 W/m 42,8 km/h (6 Bft) 97,87 %
01.01.2018 02:34 7,7 C 7,2 C 5,0 C 84 % 0 lf 998,6 hPa 0,0 l/m 0 min 0 min 0 W/m 38,3 km/h (5 Bft) 95,65 %
01.01.2018 02:36 7,6 C 7,2 C 5,6 C 83 % 0 lf 998,5 hPa 0,0 l/m 0 min 0 min 0 W/m 42,8 km/h (6 Bft) 100,00 %
01.01.2018 02:38 7,6 C 7,2 C 5,6 C 83 % 0 lf 998,7 hPa 0,0 l/m 0 min 0 min 0 W/m 49,6 km/h (6 Bft) 100,00 %
01.01.2018 02:40 7,6 C 7,2 C 5,6 C 83 % 0 lf 998,8 hPa 0,0 l/m 0 min 0 min 0 W/m 42,8 km/h (6 Bft) 97,87 %
01.01.2018 02:42 7,6 C 7,2 C 5,6 C 83 % 0 lf 998,6 hPa 0,0 l/m 0 min 0 min 0 W/m 42,8 km/h (6 Bft) 97,87 %
01.01.2018 02:44 7,7 C 7,2 C 5,6 C 82 % 0 lf 998,7 hPa 0,0 l/m 0 min 0 min 0 W/m 45,1 km/h (6 Bft) 97,87 %
01.01.2018 02:46 7,7 C 7,2 C 5,6 C 82 % 0 lf 998,7 hPa 0,0 l/m 0 min 0 min 0 W/m 42,8 km/h (6 Bft) 100,00 %
01.01.2018 02:48 7,7 C 7,8 C 5,6 C 82 % 0 lf 998,7 hPa 0,0 l/m 0 min 0 min 0 W/m 47,3 km/h (6 Bft) 95,74 %
01.01.2018 02:50 7,7 C 7,8 C 5,6 C 82 % 0 lf 998,7 hPa 0,0 l/m 0 min 0 min 0 W/m 54,1 km/h (7 Bft) 100,00 %
01.01.2018 02:52 7,7 C 7,8 C 5,6 C 82 % 0 lf 998,7 hPa 0,0 l/m 0 min 0 min 0 W/m 38,3 km/h (5 Bft) 95,12 %
01.01.2018 02:54 7,7 C 7,2 C 5,6 C 82 % 0 lf 998,7 hPa 0,0 l/m 0 min 0 min 0 W/m 51,8 km/h (7 Bft) 100,00 %
01.01.2018 02:56 7,7 C 7,2 C 5,6 C 82 % 0 lf 998,8 hPa 0,0 l/m 0 min 0 min 0 W/m 54,1 km/h (7 Bft) 97,87 %
01.01.2018 02:58 7,7 C 7,2 C 5,6 C 82 % 0 lf 998,7 hPa 0,0 l/m 0 min 0 min 0 W/m 47,3 km/h (6 Bft) 100,00 %
01.01.2018 03:00 7,7 C 7,2 C 5,6 C 82 % 0 lf 998,6 hPa 0,0 l/m 0 min 0 min 0 W/m 56,3 km/h (7 Bft) 100,00 %
01.01.2018 03:02 7,7 C 7,2 C 5,6 C 82 % 0 lf 998,5 hPa 0,0 l/m 0 min 0 min 0 W/m 33,8 km/h (5 Bft) 95,74 %
01.01.2018 03:04 7,7 C 7,2 C 5,6 C 82 % 0 lf 998,6 hPa 0,0 l/m 0 min 0 min 0 W/m 47,3 km/h (6 Bft) 97,87 %
01.01.2018 03:06 7,7 C 7,2 C 5,6 C 82 % 0 lf 998,5 hPa 0,0 l/m 0 min 0 min 0 W/m 31,5 km/h (5 Bft) 100,00 %
01.01.2018 03:08 7,6 C 7,2 C 5,6 C 82 % 0 lf 998,6 hPa 0,0 l/m 0 min 0 min 0 W/m 49,6 km/h (6 Bft) 97,87 %
01.01.2018 03:10 7,6 C 7,2 C 5,6 C 82 % 0 lf 998,7 hPa 0,0 l/m 0 min 0 min 0 W/m 54,1 km/h (7 Bft) 97,83 %
01.01.2018 03:12 7,7 C 7,2 C 5,6 C 82 % 0 lf 998,8 hPa 0,0 l/m 0 min 0 min 0 W/m 51,8 km/h (7 Bft) 100,00 %
01.01.2018 03:14 7,7 C 7,2 C 5,6 C 82 % 0 lf 998,8 hPa 0,0 l/m 0 min 0 min 0 W/m 42,8 km/h (6 Bft) 100,00 %
01.01.2018 03:16 7,7 C 7,2 C 5,6 C 82 % 0 lf 998,8 hPa 0,0 l/m 0 min 0 min 0 W/m 45,1 km/h (6 Bft) 100,00 %
01.01.2018 03:18 7,7 C 7,8 C 6,1 C 82 % 0 lf 998,8 hPa 0,0 l/m 0 min 0 min 0 W/m 42,8 km/h (6 Bft) 97,87 %
01.01.2018 03:20 7,7 C 7,8 C 6,1 C 82 % 0 lf 998,9 hPa 0,0 l/m 0 min 0 min 0 W/m 45,1 km/h (6 Bft) 95,74 %
01.01.2018 03:22 7,7 C 7,2 C 5,6 C 82 % 0 lf 999,0 hPa 0,0 l/m 0 min 0 min 0 W/m 33,8 km/h (5 Bft) 100,00 %
01.01.2018 03:24 7,7 C 7,2 C 5,6 C 82 % 0 lf 999,0 hPa 0,0 l/m 0 min 0 min 0 W/m 47,3 km/h (6 Bft) 100,00 %
01.01.2018 03:26 7,7 C 7,2 C 5,6 C 82 % 0 lf 998,9 hPa 0,0 l/m 0 min 0 min 0 W/m 38,3 km/h (5 Bft) 97,87 %
01.01.2018 03:28 7,7 C 7,2 C 5,6 C 82 % 0 lf 998,8 hPa 0,0 l/m 0 min 0 min 0 W/m 42,8 km/h (6 Bft) 100,00 %
01.01.2018 03:30 7,7 C 7,2 C 5,6 C 82 % 0 lf 998,8 hPa 0,0 l/m 0 min 0 min 0 W/m 45,1 km/h (6 Bft) 100,00 %
01.01.2018 03:32 7,7 C 7,2 C 5,6 C 82 % 0 lf 998,8 hPa 0,0 l/m 0 min 0 min 0 W/m 40,6 km/h (6 Bft) 97,83 %
01.01.2018 03:34 7,7 C 7,2 C 5,6 C 82 % 0 lf 998,8 hPa 0,0 l/m 0 min 0 min 0 W/m 51,8 km/h (7 Bft) 97,87 %
01.01.2018 03:36 7,7 C 7,2 C 6,1 C 82 % 0 lf 999,0 hPa 0,0 l/m 0 min 0 min 0 W/m 51,8 km/h (7 Bft) 93,62 %
01.01.2018 03:38 7,7 C 7,8 C 6,1 C 82 % 0 lf 999,1 hPa 0,0 l/m 0 min 0 min 0 W/m 60,8 km/h (7 Bft) 97,87 %
01.01.2018 03:40 7,8 C 7,8 C 6,1 C 82 % 0 lf 999,0 hPa 0,0 l/m 0 min 0 min 0 W/m 49,6 km/h (6 Bft) 93,62 %
01.01.2018 03:42 7,8 C 7,8 C 6,1 C 82 % 0 lf 998,9 hPa 0,0 l/m 0 min 0 min 0 W/m 72,1 km/h (8 Bft) 97,87 %
01.01.2018 03:44 7,8 C 7,8 C 6,1 C 82 % 0 lf 999,1 hPa 0,0 l/m 0 min 0 min 0 W/m 45,1 km/h (6 Bft) 95,65 %
01.01.2018 03:46 7,8 C 7,8 C 6,1 C 82 % 0 lf 999,0 hPa 0,0 l/m 0 min 0 min 0 W/m 42,8 km/h (6 Bft) 93,62 %
01.01.2018 03:48 7,8 C 7,8 C 6,1 C 82 % 1 lf 999,0 hPa 0,0 l/m 0 min 0 min 0 W/m 58,6 km/h (7 Bft) 91,49 %
01.01.2018 03:50 7,9 C 7,8 C 6,1 C 82 % 0 lf 999,2 hPa 0,0 l/m 0 min 0 min 0 W/m 69,8 km/h (8 Bft) 91,49 %
01.01.2018 03:52 7,9 C 7,8 C 6,1 C 82 % 0 lf 999,1 hPa 0,0 l/m 0 min 0 min 0 W/m 42,8 km/h (6 Bft) 91,49 %
01.01.2018 03:54 7,9 C 7,8 C 6,1 C 82 % 0 lf 999,3 hPa 0,0 l/m 0 min 0 min 0 W/m 54,1 km/h (7 Bft) 95,74 %
01.01.2018 03:56 7,9 C 7,8 C 6,7 C 82 % 0 lf 999,1 hPa 0,0 l/m 0 min 0 min 0 W/m 51,8 km/h (7 Bft) 93,48 %
01.01.2018 03:58 8,0 C 7,8 C 6,7 C 81 % 0 lf 999,3 hPa 0,0 l/m 0 min 0 min 0 W/m 56,3 km/h (7 Bft) 93,62 %
01.01.2018 04:00 8,0 C 7,8 C 6,7 C 81 % 0 lf 999,3 hPa 0,0 l/m 0 min 0 min 0 W/m 58,6 km/h (7 Bft) 93,62 %
01.01.2018 04:02 8,1 C 7,8 C 6,7 C 81 % 0 lf 999,2 hPa 0,0 l/m 0 min 0 min 0 W/m 49,6 km/h (6 Bft) 100,00 %
01.01.2018 04:04 8,1 C 8,3 C 6,7 C 81 % 0 lf 999,4 hPa 0,0 l/m 0 min 0 min 0 W/m 60,8 km/h (7 Bft) 93,62 %
01.01.2018 04:06 8,1 C 7,8 C 6,7 C 81 % 0 lf 999,2 hPa 0,0 l/m 0 min 0 min 0 W/m 42,8 km/h (6 Bft) 93,62 %
01.01.2018 04:08 8,1 C 7,8 C 6,7 C 81 % 0 lf 999,4 hPa 0,0 l/m 0 min 0 min 0 W/m 45,1 km/h (6 Bft) 93,48 %
01.01.2018 04:10 8,1 C 7,8 C 6,1 C 81 % 0 lf 999,3 hPa 0,0 l/m 0 min 0 min 0 W/m 40,6 km/h (6 Bft) 93,62 %
01.01.2018 04:12 8,1 C 7,8 C 6,1 C 81 % 0 lf 999,3 hPa 0,0 l/m 0 min 0 min 0 W/m 49,6 km/h (6 Bft) 93,62 %
01.01.2018 04:14 8,1 C 7,8 C 6,1 C 81 % 0 lf 999,3 hPa 0,0 l/m 0 min 2 min 0 W/m 67,6 km/h (8 Bft) 93,62 %
01.01.2018 04:16 8,1 C 7,8 C 6,1 C 81 % 0 lf 999,3 hPa 0,0 l/m 0 min 0 min 0 W/m 51,8 km/h (7 Bft) 89,36 %
01.01.2018 04:18 8,1 C 7,8 C 6,1 C 81 % 0 lf 999,3 hPa 0,0 l/m 0 min 0 min 0 W/m 67,6 km/h (8 Bft) 95,74 %
01.01.2018 04:20 8,1 C 7,8 C 6,1 C 82 % 0 lf 999,5 hPa 0,0 l/m 0 min 0 min 0 W/m 40,6 km/h (6 Bft) 95,65 %
01.01.2018 04:22 8,0 C 7,8 C 6,1 C 82 % 0 lf 999,4 hPa 0,0 l/m 0 min 0 min 0 W/m 69,8 km/h (8 Bft) 95,74 %
01.01.2018 04:24 8,0 C 7,2 C 6,1 C 82 % 0 lf 999,5 hPa 0,0 l/m 0 min 0 min 0 W/m 42,8 km/h (6 Bft) 93,62 %
01.01.2018 04:26 7,9 C 7,2 C 6,1 C 82 % 0 lf 999,5 hPa 0,0 l/m 0 min 0 min 0 W/m 54,1 km/h (7 Bft) 93,62 %
01.01.2018 04:28 7,9 C 7,2 C 6,1 C 82 % 0 lf 999,6 hPa 0,0 l/m 0 min 0 min 0 W/m 58,6 km/h (7 Bft) 95,74 %
01.01.2018 04:30 7,8 C 7,2 C 6,1 C 83 % 0 lf 999,5 hPa 0,0 l/m 0 min 0 min 0 W/m 63,1 km/h (8 Bft) 97,83 %
01.01.2018 04:32 7,8 C 7,2 C 6,1 C 83 % 0 lf 999,6 hPa 0,0 l/m 0 min 0 min 0 W/m 58,6 km/h (7 Bft) 97,87 %
01.01.2018 04:34 7,8 C 7,2 C 6,1 C 83 % 0 lf 999,6 hPa 0,0 l/m 0 min 0 min 0 W/m 65,3 km/h (8 Bft) 97,87 %
01.01.2018 04:36 7,8 C 7,2 C 6,1 C 83 % 0 lf 999,6 hPa 0,0 l/m 0 min 0 min 0 W/m 58,6 km/h (7 Bft) 100,00 %
01.01.2018 04:38 7,7 C 7,2 C 6,1 C 83 % 0 lf 999,6 hPa 0,0 l/m 0 min 0 min 0 W/m 76,6 km/h (9 Bft) 97,87 %
01.01.2018 04:40 7,7 C 7,2 C 6,1 C 82 % 0 lf 999,7 hPa 0,0 l/m 0 min 0 min 0 W/m 76,6 km/h (9 Bft) 100,00 %
01.01.2018 04:42 7,7 C 7,2 C 6,1 C 82 % 0 lf 999,6 hPa 0,0 l/m 0 min 0 min 0 W/m 65,3 km/h (8 Bft) 97,83 %
01.01.2018 04:44 7,7 C 7,2 C 6,1 C 82 % 0 lf 999,5 hPa 0,0 l/m 0 min 0 min 0 W/m 51,8 km/h (7 Bft) 97,87 %
01.01.2018 04:46 7,7 C 7,2 C 6,1 C 82 % 0 lf 999,6 hPa 0,0 l/m 0 min 0 min 0 W/m 49,6 km/h (6 Bft) 91,49 %
01.01.2018 04:48 7,7 C 7,2 C 6,1 C 83 % 0 lf 999,7 hPa 0,0 l/m 0 min 0 min 0 W/m 49,6 km/h (6 Bft) 100,00 %
01.01.2018 04:50 7,7 C 7,2 C 6,1 C 83 % 0 lf 999,6 hPa 0,0 l/m 0 min 0 min 0 W/m 40,6 km/h (6 Bft) 100,00 %
01.01.2018 04:52 7,6 C 7,2 C 6,1 C 83 % 0 lf 999,6 hPa 0,0 l/m 0 min 0 min 0 W/m 49,6 km/h (6 Bft) 100,00 %
01.01.2018 04:54 7,6 C 7,2 C 6,1 C 83 % 0 lf 999,6 hPa 0,0 l/m 0 min 0 min 0 W/m 47,3 km/h (6 Bft) 100,00 %
01.01.2018 04:56 7,6 C 7,2 C 6,1 C 83 % 0 lf 999,6 hPa 0,0 l/m 0 min 0 min 0 W/m 54,1 km/h (7 Bft) 97,87 %
01.01.2018 04:58 7,6 C 7,2 C 6,1 C 83 % 0 lf 999,5 hPa 0,0 l/m 0 min 0 min 0 W/m 56,3 km/h (7 Bft) 100,00 %
01.01.2018 05:00 7,6 C 7,2 C 6,1 C 83 % 0 lf 999,8 hPa 0,0 l/m 0 min 0 min 0 W/m 58,6 km/h (7 Bft) 100,00 %
01.01.2018 05:02 7,6 C 7,2 C 5,6 C 83 % 0 lf 999,8 hPa 0,0 l/m 0 min 0 min 0 W/m 49,6 km/h (6 Bft) 100,00 %
01.01.2018 05:04 7,6 C 7,2 C 5,6 C 83 % 0 lf 999,7 hPa 0,0 l/m 0 min 0 min 0 W/m 47,3 km/h (6 Bft) 100,00 %
01.01.2018 05:06 7,5 C 7,2 C 5,6 C 83 % 0 lf 999,7 hPa 0,0 l/m 0 min 0 min 0 W/m 49,6 km/h (6 Bft) 97,83 %
01.01.2018 05:08 7,5 C 7,2 C 5,6 C 83 % 0 lf 999,8 hPa 0,0 l/m 0 min 0 min 0 W/m 63,1 km/h (8 Bft) 100,00 %
01.01.2018 05:10 7,4 C 7,2 C 5,6 C 83 % 0 lf 999,7 hPa 0,0 l/m 0 min 0 min 0 W/m 56,3 km/h (7 Bft) 100,00 %
01.01.2018 05:12 7,4 C 7,2 C 5,6 C 83 % 0 lf 999,9 hPa 0,0 l/m 0 min 0 min 0 W/m 60,8 km/h (7 Bft) 100,00 %
01.01.2018 05:14 7,4 C 7,2 C 5,6 C 83 % 0 lf 999,8 hPa 0,0 l/m 0 min 0 min 0 W/m 36,0 km/h (5 Bft) 100,00 %
01.01.2018 05:16 7,4 C 7,2 C 5,6 C 83 % 0 lf 999,8 hPa 0,0 l/m 0 min 0 min 0 W/m 60,8 km/h (7 Bft) 100,00 %
01.01.2018 05:18 7,3 C 7,2 C 5,6 C 83 % 0 lf 999,9 hPa 0,0 l/m 0 min 0 min 0 W/m 51,8 km/h (7 Bft) 97,83 %
01.01.2018 05:20 7,3 C 7,2 C 5,6 C 83 % 0 lf 999,9 hPa 0,0 l/m 0 min 0 min 0 W/m 56,3 km/h (7 Bft) 100,00 %
01.01.2018 05:22 7,3 C 7,2 C 5,6 C 84 % 0 lf 1000,0 hPa 0,0 l/m 0 min 0 min 0 W/m 47,3 km/h (6 Bft) 97,87 %
01.01.2018 05:24 7,3 C 7,2 C 5,6 C 84 % 0 lf 1000,0 hPa 0,0 l/m 0 min 0 min 0 W/m 60,8 km/h (7 Bft) 100,00 %
01.01.2018 05:26 7,3 C 7,2 C 5,6 C 84 % 0 lf 1000,0 hPa 0,0 l/m 0 min 0 min 0 W/m 49,6 km/h (6 Bft) 93,62 %
01.01.2018 05:28 7,3 C 7,2 C 5,6 C 84 % 0 lf 1000,1 hPa 0,0 l/m 0 min 0 min 0 W/m 54,1 km/h (7 Bft) 100,00 %
01.01.2018 05:30 7,3 C 7,2 C 5,6 C 84 % 0 lf 1000,1 hPa 0,0 l/m 0 min 0 min 0 W/m 69,8 km/h (8 Bft) 100,00 %
01.01.2018 05:32 7,3 C 7,2 C 5,6 C 84 % 0 lf 1000,1 hPa 0,0 l/m 0 min 0 min 0 W/m 56,3 km/h (7 Bft) 100,00 %
01.01.2018 05:34 7,3 C 7,2 C 5,6 C 84 % 0 lf 1000,2 hPa 0,0 l/m 0 min 0 min 0 W/m 45,1 km/h (6 Bft) 95,74 %
01.01.2018 05:35 7,3 C 7,2 C 5,6 C 84 % 0 lf 1000,1 hPa 0,0 l/m 0 min 0 min 0 W/m 56,3 km/h (7 Bft) 100,00 %
01.01.2018 05:40 7,2 C 7,2 C 5,6 C 84 % 0 lf 1000,3 hPa 0,0 l/m 0 min 0 min 0 W/m 56,3 km/h (7 Bft) 100,00 %
01.01.2018 05:42 7,2 C 7,2 C 5,6 C 84 % 0 lf 1000,3 hPa 0,0 l/m 0 min 0 min 0 W/m 56,3 km/h (7 Bft) 91,43 %
01.01.2018 05:44 7,2 C 7,2 C 5,6 C 84 % 0 lf 1000,5 hPa 0,0 l/m 0 min 0 min 0 W/m 54,1 km/h (7 Bft) 96,55 %
01.01.2018 05:46 7,2 C 6,7 C 5,6 C 84 % 0 lf 1000,5 hPa 0,0 l/m 0 min 0 min 0 W/m 47,3 km/h (6 Bft) 94,44 %
01.01.2018 05:48 7,2 C 6,7 C 5,6 C 84 % 0 lf 1000,6 hPa 0,0 l/m 0 min 0 min 0 W/m 58,6 km/h (7 Bft) 93,62 %
01.01.2018 05:50 7,2 C 6,7 C 5,6 C 84 % 0 lf 1000,6 hPa 0,0 l/m 0 min 0 min 0 W/m 40,6 km/h (6 Bft) 94,55 %
01.01.2018 05:52 7,2 C 6,7 C 5,6 C 83 % 0 lf 1000,6 hPa 0,0 l/m 0 min 0 min 0 W/m 49,6 km/h (6 Bft) 95,74 %
01.01.2018 05:54 7,1 C 6,7 C 5,6 C 83 % 0 lf 1000,6 hPa 0,0 l/m 0 min 0 min 0 W/m 58,6 km/h (7 Bft) 95,74 %
01.01.2018 05:56 7,1 C 6,7 C 5,6 C 83 % 0 lf 1000,7 hPa 0,0 l/m 0 min 0 min 0 W/m 45,1 km/h (6 Bft) 95,92 %
01.01.2018 05:58 7,1 C 6,7 C 5,0 C 83 % 0 lf 1000,8 hPa 0,0 l/m 0 min 0 min 0 W/m 45,1 km/h (6 Bft) 94,44 %
01.01.2018 06:00 7,1 C 6,7 C 5,0 C 83 % 0 lf 1000,8 hPa 0,0 l/m 0 min 0 min 0 W/m 42,8 km/h (6 Bft) 95,74 %
01.01.2018 06:02 7,0 C 6,7 C 5,0 C 84 % 0 lf 1000,8 hPa 0,0 l/m 0 min 0 min 0 W/m 42,8 km/h (6 Bft) 92,73 %
01.01.2018 06:04 7,0 C 6,7 C 5,6 C 84 % 0 lf 1000,8 hPa 0,0 l/m 0 min 0 min 0 W/m 51,8 km/h (7 Bft) 92,00 %
01.01.2018 06:06 7,0 C 6,7 C 5,6 C 84 % 0 lf 1000,8 hPa 0,0 l/m 0 min 0 min 0 W/m 56,3 km/h (7 Bft) 97,14 %
01.01.2018 06:08 7,0 C 6,7 C 5,6 C 84 % 0 lf 1000,8 hPa 0,0 l/m 0 min 0 min 0 W/m 49,6 km/h (6 Bft) 96,30 %
01.01.2018 06:10 7,0 C 6,7 C 5,6 C 84 % 0 lf 1000,8 hPa 0,0 l/m 0 min 0 min 0 W/m 58,6 km/h (7 Bft) 94,00 %
01.01.2018 06:12 7,0 C 6,7 C 5,6 C 84 % 0 lf 1000,7 hPa 0,0 l/m 0 min 0 min 0 W/m 56,3 km/h (7 Bft) 95,83 %
01.01.2018 06:14 7,0 C 6,7 C 5,6 C 84 % 0 lf 1000,8 hPa 0,0 l/m 0 min 0 min 0 W/m 56,3 km/h (7 Bft) 97,87 %
01.01.2018 06:16 7,0 C 6,7 C 5,6 C 84 % 0 lf 1000,9 hPa 0,0 l/m 0 min 0 min 0 W/m 60,8 km/h (7 Bft) 97,14 %
01.01.2018 06:18 7,0 C 6,7 C 5,6 C 84 % 0 lf 1000,9 hPa 0,0 l/m 0 min 0 min 0 W/m 54,1 km/h (7 Bft) 94,83 %
01.01.2018 06:20 6,9 C 6,7 C 5,6 C 84 % 0 lf 1000,8 hPa 0,0 l/m 0 min 0 min 0 W/m 42,8 km/h (6 Bft) 91,67 %
01.01.2018 06:22 6,9 C 6,7 C 5,0 C 84 % 0 lf 1000,9 hPa 0,0 l/m 0 min 0 min 0 W/m 54,1 km/h (7 Bft) 100,00 %
01.01.2018 06:24 6,9 C 6,7 C 5,0 C 84 % 0 lf 1000,9 hPa 0,0 l/m 0 min 0 min 0 W/m 45,1 km/h (6 Bft) 95,74 %
01.01.2018 06:26 6,9 C 6,7 C 5,0 C 84 % 0 lf 1000,8 hPa 0,0 l/m 0 min 0 min 0 W/m 45,1 km/h (6 Bft) 93,48 %
01.01.2018 06:28 6,9 C 6,7 C 5,0 C 84 % 0 lf 1000,8 hPa 0,0 l/m 0 min 0 min 0 W/m 38,3 km/h (5 Bft) 92,86 %
01.01.2018 06:30 6,8 C 6,7 C 5,0 C 84 % 0 lf 1000,8 hPa 0,0 l/m 0 min 0 min 0 W/m 51,8 km/h (7 Bft) 95,92 %
01.01.2018 06:32 6,8 C 6,7 C 5,0 C 84 % 0 lf 1000,8 hPa 0,0 l/m 0 min 0 min 0 W/m 36,0 km/h (5 Bft) 91,67 %
01.01.2018 06:34 6,8 C 6,7 C 5,0 C 84 % 1 lf 1000,9 hPa 0,0 l/m 0 min 2 min 0 W/m 49,6 km/h (6 Bft) 95,74 %
01.01.2018 06:36 6,8 C 6,7 C 5,0 C 84 % 0 lf 1000,8 hPa 0,0 l/m 0 min 0 min 0 W/m 51,8 km/h (7 Bft) 93,62 %
01.01.2018 06:38 6,8 C 6,7 C 5,0 C 85 % 0 lf 1000,8 hPa 0,0 l/m 0 min 0 min 0 W/m 40,6 km/h (6 Bft) 94,55 %
01.01.2018 06:40 6,8 C 6,1 C 5,0 C 85 % 0 lf 1000,9 hPa 0,0 l/m 0 min 0 min 0 W/m 29,3 km/h (5 Bft) 96,00 %
01.01.2018 06:42 6,8 C 6,1 C 5,0 C 85 % 0 lf 1000,8 hPa 0,0 l/m 0 min 0 min 0 W/m 54,1 km/h (7 Bft) 97,14 %
01.01.2018 06:44 6,7 C 6,7 C 5,0 C 85 % 0 lf 1001,0 hPa 0,0 l/m 0 min 2 min 0 W/m 47,3 km/h (6 Bft) 91,49 %
01.01.2018 06:46 6,7 C 6,7 C 5,0 C 85 % 0 lf 1001,0 hPa 0,0 l/m 0 min 0 min 0 W/m 47,3 km/h (6 Bft) 94,55 %
01.01.2018 06:48 6,7 C 6,7 C 5,0 C 85 % 0 lf 1001,3 hPa 0,0 l/m 0 min 0 min 0 W/m 49,6 km/h (6 Bft) 90,00 %
01.01.2018 06:50 6,7 C 6,1 C 5,0 C 85 % 0 lf 1001,1 hPa 0,0 l/m 0 min 0 min 0 W/m 40,6 km/h (6 Bft) 95,74 %
01.01.2018 06:52 6,7 C 6,1 C 5,0 C 85 % 0 lf 1001,3 hPa 0,0 l/m 0 min 0 min 0 W/m 49,6 km/h (6 Bft) 97,14 %
01.01.2018 06:54 6,7 C 6,1 C 5,0 C 85 % 0 lf 1001,3 hPa 0,0 l/m 0 min 0 min 0 W/m 42,8 km/h (6 Bft) 95,74 %
01.01.2018 06:56 6,6 C 6,1 C 5,0 C 85 % 0 lf 1001,4 hPa 0,0 l/m 0 min 0 min 0 W/m 31,5 km/h (5 Bft) 87,23 %
01.01.2018 06:58 6,6 C 6,1 C 5,0 C 85 % 0 lf 1001,3 hPa 0,0 l/m 0 min 0 min 0 W/m 40,6 km/h (6 Bft) 95,74 %
01.01.2018 07:00 6,6 C 6,1 C 5,0 C 85 % 0 lf 1001,4 hPa 0,0 l/m 0 min 0 min 0 W/m 27,0 km/h (4 Bft) 95,65 %
01.01.2018 07:02 6,6 C 6,1 C 5,0 C 85 % 0 lf 1001,3 hPa 0,0 l/m 0 min 0 min 0 W/m 40,6 km/h (6 Bft) 93,62 %
01.01.2018 07:04 6,6 C 6,1 C 5,0 C 85 % 0 lf 1001,4 hPa 0,0 l/m 0 min 0 min 0 W/m 40,6 km/h (6 Bft) 95,74 %
01.01.2018 07:06 6,6 C 6,7 C 5,0 C 85 % 0 lf 1001,5 hPa 0,0 l/m 0 min 0 min 0 W/m 42,8 km/h (6 Bft) 93,62 %
01.01.2018 07:08 6,6 C 6,7 C 5,0 C 85 % 0 lf 1001,4 hPa 0,0 l/m 0 min 0 min 0 W/m 49,6 km/h (6 Bft) 97,87 %
01.01.2018 07:10 6,6 C 6,7 C 5,0 C 85 % 0 lf 1001,5 hPa 0,0 l/m 0 min 0 min 0 W/m 51,8 km/h (7 Bft) 100,00 %
01.01.2018 07:12 6,6 C 6,7 C 5,0 C 85 % 0 lf 1001,4 hPa 0,0 l/m 0 min 0 min 0 W/m 38,3 km/h (5 Bft) 97,83 %
01.01.2018 07:14 6,6 C 6,7 C 5,0 C 85 % 0 lf 1001,5 hPa 0,0 l/m 0 min 0 min 0 W/m 47,3 km/h (6 Bft) 97,87 %
01.01.2018 07:16 6,6 C 6,7 C 5,0 C 85 % 0 lf 1001,5 hPa 0,0 l/m 0 min 0 min 0 W/m 51,8 km/h (7 Bft) 95,74 %
01.01.2018 07:18 6,6 C 6,7 C 5,0 C 85 % 0 lf 1001,5 hPa 0,0 l/m 0 min 0 min 0 W/m 45,1 km/h (6 Bft) 97,87 %
01.01.2018 07:20 6,6 C 6,1 C 5,0 C 85 % 0 lf 1001,6 hPa 0,0 l/m 0 min 0 min 0 W/m 47,3 km/h (6 Bft) 96,15 %
01.01.2018 07:22 6,6 C 6,1 C 5,0 C 85 % 0 lf 1001,6 hPa 0,0 l/m 0 min 0 min 0 W/m 60,8 km/h (7 Bft) 95,24 %
01.01.2018 07:24 6,6 C 6,1 C 5,0 C 85 % 0 lf 1001,5 hPa 0,0 l/m 0 min 0 min 0 W/m 51,8 km/h (7 Bft) 93,48 %
01.01.2018 07:26 6,6 C 6,1 C 5,0 C 85 % 0 lf 1001,5 hPa 0,0 l/m 0 min 0 min 0 W/m 42,8 km/h (6 Bft) 97,87 %
01.01.2018 07:28 6,6 C 6,1 C 5,0 C 86 % 0 lf 1001,6 hPa 0,0 l/m 0 min 0 min 0 W/m 54,1 km/h (7 Bft) 95,74 %
01.01.2018 07:30 6,6 C 6,1 C 5,0 C 86 % 0 lf 1001,5 hPa 0,0 l/m 0 min 0 min 0 W/m 54,1 km/h (7 Bft) 100,00 %
01.01.2018 07:32 6,6 C 6,1 C 5,0 C 86 % 0 lf 1001,6 hPa 0,0 l/m 0 min 0 min 0 W/m 63,1 km/h (8 Bft) 100,00 %
01.01.2018 07:34 6,6 C 6,1 C 5,0 C 86 % 0 lf 1001,7 hPa 0,0 l/m 0 min 0 min 0 W/m 45,1 km/h (6 Bft) 97,87 %
01.01.2018 07:36 6,6 C 6,1 C 5,0 C 86 % 0 lf 1001,7 hPa 0,0 l/m 0 min 0 min 0 W/m 42,8 km/h (6 Bft) 97,83 %
01.01.2018 07:38 6,6 C 6,1 C 5,0 C 86 % 0 lf 1001,8 hPa 0,0 l/m 0 min 0 min 0 W/m 42,8 km/h (6 Bft) 95,74 %
01.01.2018 07:40 6,6 C 6,1 C 5,0 C 86 % 0 lf 1001,8 hPa 0,0 l/m 0 min 0 min 0 W/m 51,8 km/h (7 Bft) 95,74 %
01.01.2018 07:42 6,5 C 6,1 C 5,0 C 86 % 0 lf 1001,7 hPa 0,0 l/m 0 min 0 min 0 W/m 40,6 km/h (6 Bft) 95,74 %
01.01.2018 07:44 6,5 C 6,1 C 5,0 C 86 % 0 lf 1001,7 hPa 0,0 l/m 0 min 0 min 0 W/m 45,1 km/h (6 Bft) 97,87 %
01.01.2018 07:46 6,5 C 6,1 C 5,0 C 86 % 0 lf 1001,9 hPa 0,0 l/m 0 min 0 min 0 W/m 38,3 km/h (5 Bft) 97,83 %
01.01.2018 07:48 6,5 C 6,1 C 5,0 C 86 % 0 lf 1001,9 hPa 0,0 l/m 0 min 0 min 0 W/m 45,1 km/h (6 Bft) 95,74 %
01.01.2018 07:50 6,5 C 6,1 C 5,0 C 86 % 0 lf 1002,0 hPa 0,0 l/m 0 min 0 min 0 W/m 45,1 km/h (6 Bft) 97,87 %
01.01.2018 07:52 6,5 C 6,1 C 5,0 C 86 % 0 lf 1002,1 hPa 0,0 l/m 0 min 0 min 0 W/m 42,8 km/h (6 Bft) 97,87 %
01.01.2018 07:54 6,5 C 6,1 C 5,0 C 86 % 0 lf 1001,9 hPa 0,0 l/m 0 min 0 min 0 W/m 49,6 km/h (6 Bft) 97,87 %
01.01.2018 07:56 6,5 C 6,1 C 5,0 C 86 % 0 lf 1002,0 hPa 0,0 l/m 0 min 0 min 0 W/m 45,1 km/h (6 Bft) 95,74 %
01.01.2018 07:58 6,5 C 6,1 C 5,0 C 86 % 0 lf 1002,0 hPa 0,0 l/m 0 min 0 min 0 W/m 40,6 km/h (6 Bft) 98,15 %
01.01.2018 08:00 6,6 C 6,1 C 5,0 C 86 % 0 lf 1002,2 hPa 0,0 l/m 0 min 0 min 0 W/m 40,6 km/h (6 Bft) 98,00 %
01.01.2018 08:02 6,6 C 6,1 C 5,0 C 86 % 0 lf 1002,1 hPa 0,0 l/m 0 min 0 min 0 W/m 40,6 km/h (6 Bft) 94,44 %
01.01.2018 08:04 6,6 C 6,1 C 5,0 C 86 % 0 lf 1002,1 hPa 0,0 l/m 0 min 0 min 0 W/m 42,8 km/h (6 Bft) 93,62 %
01.01.2018 08:06 6,6 C 6,1 C 5,0 C 86 % 0 lf 1002,1 hPa 0,0 l/m 0 min 0 min 0 W/m 38,3 km/h (5 Bft) 98,15 %
01.01.2018 08:08 6,6 C 6,1 C 5,0 C 86 % 0 lf 1002,1 hPa 0,0 l/m 0 min 0 min 0 W/m 33,8 km/h (5 Bft) 100,00 %
01.01.2018 08:10 6,5 C 6,1 C 4,4 C 86 % 0 lf 1002,0 hPa 0,0 l/m 0 min 0 min 0 W/m 29,3 km/h (5 Bft) 97,22 %
01.01.2018 08:12 6,5 C 6,1 C 4,4 C 86 % 0 lf 1002,1 hPa 0,0 l/m 0 min 0 min 0 W/m 42,8 km/h (6 Bft) 97,87 %
01.01.2018 08:14 6,5 C 6,1 C 5,0 C 86 % 0 lf 1002,1 hPa 0,0 l/m 0 min 0 min 0 W/m 47,3 km/h (6 Bft) 100,00 %
01.01.2018 08:16 6,5 C 6,1 C 4,4 C 86 % 0 lf 1002,1 hPa 0,0 l/m 0 min 0 min 0 W/m 31,5 km/h (5 Bft) 95,92 %
01.01.2018 08:18 6,5 C 6,1 C 5,0 C 86 % 0 lf 1002,2 hPa 0,0 l/m 0 min 0 min 0 W/m 42,8 km/h (6 Bft) 100,00 %
01.01.2018 08:20 6,5 C 6,1 C 5,0 C 86 % 0 lf 1002,1 hPa 0,0 l/m 0 min 0 min 0 W/m 45,1 km/h (6 Bft) 100,00 %
01.01.2018 08:22 6,5 C 6,7 C 5,0 C 86 % 0 lf 1002,2 hPa 0,0 l/m 0 min 0 min 0 W/m 40,6 km/h (6 Bft) 100,00 %
01.01.2018 08:24 6,6 C 6,1 C 5,0 C 86 % 0 lf 1002,2 hPa 0,0 l/m 0 min 0 min 0 W/m 29,3 km/h (5 Bft) 97,87 %
01.01.2018 08:26 6,6 C 6,1 C 5,0 C 86 % 0 lf 1002,2 hPa 0,0 l/m 0 min 0 min 0 W/m 36,0 km/h (5 Bft) 100,00 %
01.01.2018 08:28 6,6 C 6,1 C 5,0 C 86 % 0 lf 1002,3 hPa 0,0 l/m 0 min 0 min 0 W/m 33,8 km/h (5 Bft) 100,00 %
01.01.2018 08:30 6,6 C 6,1 C 5,0 C 85 % 0 lf 1002,3 hPa 0,0 l/m 0 min 0 min 0 W/m 38,3 km/h (5 Bft) 97,87 %
01.01.2018 08:32 6,6 C 6,1 C 5,0 C 85 % 0 lf 1002,3 hPa 0,0 l/m 0 min 0 min 0 W/m 27,0 km/h (4 Bft) 100,00 %
01.01.2018 08:34 6,6 C 6,7 C 5,0 C 85 % 0 lf 1002,4 hPa 0,0 l/m 0 min 0 min 4 W/m 42,8 km/h (6 Bft) 100,00 %
01.01.2018 08:36 6,6 C 6,7 C 5,0 C 85 % 0 lf 1002,4 hPa 0,0 l/m 0 min 0 min 5 W/m 40,6 km/h (6 Bft) 98,18 %
01.01.2018 08:38 6,6 C 6,7 C 5,0 C 85 % 0 lf 1002,3 hPa 0,0 l/m 0 min 0 min 6 W/m 45,1 km/h (6 Bft) 100,00 %
01.01.2018 08:40 6,6 C 6,7 C 5,0 C 85 % 0 lf 1002,2 hPa 0,0 l/m 0 min 0 min 7 W/m 31,5 km/h (5 Bft) 97,30 %
01.01.2018 08:42 6,7 C 6,7 C 5,0 C 85 % 0 lf 1002,3 hPa 0,0 l/m 0 min 0 min 8 W/m 33,8 km/h (5 Bft) 97,87 %
01.01.2018 08:44 6,7 C 6,7 C 5,0 C 85 % 0 lf 1002,4 hPa 0,0 l/m 0 min 0 min 9 W/m 36,0 km/h (5 Bft) 100,00 %
01.01.2018 08:46 6,7 C 6,7 C 5,0 C 85 % 0 lf 1002,4 hPa 0,0 l/m 0 min 0 min 9 W/m 40,6 km/h (6 Bft) 96,00 %
01.01.2018 08:48 6,7 C 6,7 C 5,0 C 85 % 0 lf 1002,4 hPa 0,0 l/m 0 min 0 min 10 W/m 47,3 km/h (6 Bft) 100,00 %
01.01.2018 08:50 6,7 C 6,7 C 5,0 C 85 % 0 lf 1002,4 hPa 0,0 l/m 0 min 0 min 11 W/m 27,0 km/h (4 Bft) 97,87 %
01.01.2018 08:52 6,7 C 6,7 C 5,0 C 85 % 0 lf 1002,5 hPa 0,0 l/m 0 min 0 min 11 W/m 42,8 km/h (6 Bft) 100,00 %
01.01.2018 08:54 6,7 C 6,7 C 5,0 C 85 % 0 lf 1002,5 hPa 0,0 l/m 0 min 0 min 11 W/m 45,1 km/h (6 Bft) 100,00 %
01.01.2018 08:56 6,7 C 6,7 C 5,6 C 85 % 0 lf 1002,5 hPa 0,0 l/m 0 min 0 min 12 W/m 36,0 km/h (5 Bft) 96,30 %
01.01.2018 08:58 6,7 C 6,7 C 5,6 C 85 % 0 lf 1002,5 hPa 0,0 l/m 0 min 0 min 12 W/m 38,3 km/h (5 Bft) 100,00 %
01.01.2018 09:00 6,7 C 6,7 C 5,6 C 85 % 0 lf 1002,5 hPa 0,0 l/m 0 min 0 min 12 W/m 42,8 km/h (6 Bft) 100,00 %
01.01.2018 09:02 6,7 C 6,7 C 5,0 C 85 % 0 lf 1002,5 hPa 0,0 l/m 0 min 0 min 11 W/m 33,8 km/h (5 Bft) 97,87 %
01.01.2018 09:04 6,7 C 6,7 C 5,0 C 85 % 0 lf 1002,5 hPa 0,0 l/m 0 min 0 min 11 W/m 42,8 km/h (6 Bft) 96,30 %
01.01.2018 09:06 6,7 C 6,7 C 5,6 C 85 % 0 lf 1002,5 hPa 0,0 l/m 0 min 0 min 12 W/m 45,1 km/h (6 Bft) 96,00 %
01.01.2018 09:08 6,8 C 6,7 C 5,6 C 85 % 0 lf 1002,5 hPa 0,0 l/m 0 min 0 min 13 W/m 36,0 km/h (5 Bft) 100,00 %
01.01.2018 09:10 6,7 C 6,7 C 5,6 C 85 % 0 lf 1002,5 hPa 0,0 l/m 0 min 0 min 15 W/m 33,8 km/h (5 Bft) 97,87 %
01.01.2018 09:12 6,8 C 6,7 C 5,0 C 85 % 0 lf 1002,5 hPa 0,0 l/m 0 min 0 min 16 W/m 31,5 km/h (5 Bft) 96,36 %
01.01.2018 09:14 6,8 C 6,7 C 5,0 C 85 % 0 lf 1002,5 hPa 0,0 l/m 0 min 0 min 16 W/m 40,6 km/h (6 Bft) 100,00 %
01.01.2018 09:16 6,7 C 6,7 C 5,0 C 85 % 0 lf 1002,6 hPa 0,0 l/m 0 min 0 min 14 W/m 38,3 km/h (5 Bft) 97,30 %
01.01.2018 09:18 6,7 C 6,7 C 5,0 C 85 % 0 lf 1002,5 hPa 0,0 l/m 0 min 0 min 16 W/m 36,0 km/h (5 Bft) 97,87 %
01.01.2018 09:20 6,7 C 6,7 C 5,0 C 85 % 0 lf 1002,6 hPa 0,0 l/m 0 min 0 min 17 W/m 45,1 km/h (6 Bft) 96,30 %
01.01.2018 09:22 6,7 C 6,7 C 5,0 C 85 % 0 lf 1002,6 hPa 0,0 l/m 0 min 0 min 18 W/m 58,6 km/h (7 Bft) 97,87 %
01.01.2018 09:24 6,7 C 6,7 C 5,0 C 84 % 0 lf 1002,6 hPa 0,0 l/m 0 min 0 min 18 W/m 49,6 km/h (6 Bft) 95,74 %
01.01.2018 09:26 6,7 C 6,7 C 5,0 C 84 % 0 lf 1002,7 hPa 0,0 l/m 0 min 0 min 19 W/m 51,8 km/h (7 Bft) 95,92 %
01.01.2018 09:28 6,6 C 6,7 C 5,0 C 83 % 0 lf 1002,6 hPa 0,0 l/m 0 min 0 min 19 W/m 56,3 km/h (7 Bft) 95,74 %
01.01.2018 09:30 6,6 C 6,7 C 5,0 C 83 % 0 lf 1002,7 hPa 0,0 l/m 0 min 0 min 19 W/m 45,1 km/h (6 Bft) 91,89 %
01.01.2018 09:32 6,6 C 6,1 C 5,0 C 83 % 0 lf 1002,8 hPa 0,0 l/m 0 min 0 min 19 W/m 38,3 km/h (5 Bft) 93,48 %
01.01.2018 09:34 6,5 C 6,1 C 5,0 C 84 % 0 lf 1002,8 hPa 0,0 l/m 0 min 0 min 18 W/m 45,1 km/h (6 Bft) 94,55 %
01.01.2018 09:36 6,4 C 6,1 C 5,0 C 84 % 0 lf 1002,8 hPa 0,0 l/m 0 min 0 min 16 W/m 58,6 km/h (7 Bft) 87,76 %
01.01.2018 09:38 6,4 C 6,1 C 5,0 C 84 % 0 lf 1002,8 hPa 0,0 l/m 0 min 0 min 17 W/m 40,6 km/h (6 Bft) 94,59 %
01.01.2018 09:40 6,4 C 6,1 C 5,0 C 84 % 0 lf 1002,8 hPa 0,0 l/m 0 min 0 min 19 W/m 54,1 km/h (7 Bft) 91,49 %
01.01.2018 09:42 6,3 C 6,1 C 4,4 C 84 % 4 lf 1002,8 hPa 0,0 l/m 0 min 2 min 24 W/m 38,3 km/h (5 Bft) 89,36 %
01.01.2018 09:44 6,3 C 6,1 C 4,4 C 85 % 9 lf 1002,8 hPa 0,0 l/m 0 min 2 min 28 W/m 36,0 km/h (5 Bft) 91,30 %
01.01.2018 09:46 6,2 C 5,6 C 4,4 C 85 % 9 lf 1002,9 hPa 0,0 l/m 0 min 2 min 35 W/m 38,3 km/h (5 Bft) 91,07 %
01.01.2018 09:48 6,2 C 6,1 C 3,9 C 86 % 7 lf 1002,9 hPa 0,0 l/m 0 min 0 min 53 W/m 40,6 km/h (6 Bft) 91,84 %
01.01.2018 09:50 6,2 C 6,1 C 3,9 C 86 % 4 lf 1002,8 hPa 0,0 l/m 2 min 0 min 71 W/m 31,5 km/h (5 Bft) 89,58 %
01.01.2018 09:52 6,1 C 6,1 C 3,9 C 86 % 3 lf 1002,9 hPa 0,0 l/m 0 min 0 min 64 W/m 33,8 km/h (5 Bft) 100,00 %
01.01.2018 09:54 6,1 C 6,1 C 3,9 C 87 % 2 lf 1002,8 hPa 0,0 l/m 0 min 0 min 48 W/m 36,0 km/h (5 Bft) 91,49 %
01.01.2018 09:56 6,1 C 6,1 C 4,4 C 87 % 1 lf 1002,9 hPa 0,0 l/m 2 min 0 min 79 W/m 31,5 km/h (5 Bft) 91,30 %
01.01.2018 09:58 6,0 C 6,1 C 4,4 C 87 % 3 lf 1002,8 hPa 0,0 l/m 2 min 2 min 82 W/m 36,0 km/h (5 Bft) 92,86 %
01.01.2018 10:00 6,1 C 6,1 C 4,4 C 88 % 14 lf 1002,8 hPa 0,0 l/m 0 min 2 min 70 W/m 40,6 km/h (6 Bft) 93,88 %
01.01.2018 10:02 6,1 C 5,6 C 4,4 C 88 % 15 lf 1002,8 hPa 0,0 l/m 0 min 2 min 56 W/m 31,5 km/h (5 Bft) 86,11 %
01.01.2018 10:04 6,1 C 5,6 C 3,9 C 89 % 15 lf 1002,8 hPa 0,0 l/m 0 min 2 min 56 W/m 27,0 km/h (4 Bft) 93,62 %
01.01.2018 10:06 6,1 C 6,1 C 4,4 C 89 % 15 lf 1002,8 hPa 0,0 l/m 2 min 2 min 79 W/m 15,8 km/h (3 Bft) 94,55 %
01.01.2018 10:08 6,1 C 6,1 C 4,4 C 89 % 15 lf 1002,8 hPa 0,0 l/m 2 min 2 min 119 W/m 22,5 km/h (4 Bft) 94,00 %
01.01.2018 10:10 6,1 C 6,7 C 4,4 C 89 % 15 lf 1002,8 hPa 0,0 l/m 2 min 2 min 116 W/m 24,8 km/h (4 Bft) 97,14 %
01.01.2018 10:12 6,1 C 6,7 C 4,4 C 89 % 15 lf 1002,8 hPa 0,0 l/m 2 min 2 min 126 W/m 29,3 km/h (5 Bft) 91,49 %
01.01.2018 10:14 6,1 C 6,7 C 4,4 C 90 % 15 lf 1002,7 hPa 0,0 l/m 2 min 2 min 127 W/m 22,5 km/h (4 Bft) 94,55 %
01.01.2018 10:16 6,1 C 6,7 C 4,4 C 90 % 15 lf 1002,7 hPa 0,0 l/m 2 min 0 min 134 W/m 24,8 km/h (4 Bft) 94,00 %
01.01.2018 10:18 6,1 C 6,7 C 4,4 C 90 % 15 lf 1002,7 hPa 0,0 l/m 2 min 0 min 151 W/m 29,3 km/h (5 Bft) 94,29 %
01.01.2018 10:20 6,2 C 6,7 C 4,4 C 90 % 15 lf 1002,7 hPa 0,0 l/m 2 min 2 min 121 W/m 36,0 km/h (5 Bft) 91,49 %
01.01.2018 10:22 6,2 C 6,7 C 5,0 C 90 % 15 lf 1002,8 hPa 0,0 l/m 0 min 2 min 75 W/m 24,8 km/h (4 Bft) 95,74 %
01.01.2018 10:24 6,2 C 6,7 C 5,0 C 90 % 15 lf 1002,8 hPa 0,0 l/m 0 min 2 min 71 W/m 36,0 km/h (5 Bft) 97,87 %
01.01.2018 10:26 6,3 C 6,7 C 5,0 C 90 % 15 lf 1002,6 hPa 0,0 l/m 2 min 2 min 96 W/m 38,3 km/h (5 Bft) 98,18 %
01.01.2018 10:28 6,3 C 7,2 C 5,0 C 90 % 14 lf 1002,6 hPa 0,0 l/m 2 min 2 min 127 W/m 29,3 km/h (5 Bft) 97,96 %
01.01.2018 10:30 6,3 C 7,2 C 5,0 C 90 % 13 lf 1002,7 hPa 0,0 l/m 2 min 2 min 103 W/m 29,3 km/h (5 Bft) 97,14 %
01.01.2018 10:32 6,4 C 6,7 C 5,0 C 90 % 12 lf 1002,7 hPa 0,0 l/m 0 min 2 min 62 W/m 31,5 km/h (5 Bft) 95,74 %
01.01.2018 10:34 6,4 C 6,7 C 4,4 C 90 % 11 lf 1002,6 hPa 0,0 l/m 0 min 2 min 54 W/m 36,0 km/h (5 Bft) 96,43 %
01.01.2018 10:36 6,4 C 6,7 C 4,4 C 90 % 9 lf 1002,6 hPa 0,0 l/m 0 min 2 min 78 W/m 38,3 km/h (5 Bft) 95,92 %
01.01.2018 10:38 6,4 C 7,2 C 5,0 C 90 % 5 lf 1002,6 hPa 0,0 l/m 2 min 2 min 102 W/m 24,8 km/h (4 Bft) 100,00 %
01.01.2018 10:40 6,4 C 7,2 C 5,0 C 90 % 3 lf 1002,6 hPa 0,0 l/m 2 min 2 min 151 W/m 40,6 km/h (6 Bft) 97,87 %
01.01.2018 10:42 6,4 C 7,8 C 5,0 C 89 % 2 lf 1002,6 hPa 0,0 l/m 2 min 2 min 133 W/m 20,3 km/h (4 Bft) 100,00 %
01.01.2018 10:44 6,5 C 7,2 C 5,0 C 89 % 1 lf 1002,6 hPa 0,0 l/m 0 min 2 min 82 W/m 36,0 km/h (5 Bft) 100,00 %
01.01.2018 10:46 6,5 C 7,2 C 5,0 C 89 % 0 lf 1002,5 hPa 0,0 l/m 0 min 2 min 102 W/m 33,8 km/h (5 Bft) 97,14 %
01.01.2018 10:48 6,6 C 7,2 C 5,6 C 89 % 0 lf 1002,5 hPa 0,0 l/m 0 min 2 min 89 W/m 40,6 km/h (6 Bft) 97,87 %
01.01.2018 10:50 6,6 C 7,2 C 5,6 C 89 % 0 lf 1002,4 hPa 0,0 l/m 0 min 2 min 78 W/m 36,0 km/h (5 Bft) 100,00 %
01.01.2018 10:52 6,7 C 7,2 C 5,6 C 89 % 0 lf 1002,4 hPa 0,0 l/m 0 min 2 min 84 W/m 36,0 km/h (5 Bft) 100,00 %
01.01.2018 10:54 6,7 C 7,8 C 5,6 C 88 % 0 lf 1002,3 hPa 0,0 l/m 0 min 2 min 101 W/m 49,6 km/h (6 Bft) 95,74 %
01.01.2018 10:56 6,7 C 7,8 C 6,1 C 88 % 0 lf 1002,4 hPa 0,0 l/m 2 min 2 min 131 W/m 36,0 km/h (5 Bft) 100,00 %
01.01.2018 10:58 6,8 C 7,8 C 6,1 C 88 % 0 lf 1002,4 hPa 0,0 l/m 2 min 0 min 198 W/m 29,3 km/h (5 Bft) 100,00 %
01.01.2018 11:00 6,9 C 8,3 C 6,1 C 88 % 0 lf 1002,3 hPa 0,0 l/m 2 min 2 min 232 W/m 38,3 km/h (5 Bft) 100,00 %
01.01.2018 11:02 6,9 C 8,3 C 6,7 C 88 % 0 lf 1002,2 hPa 0,0 l/m 2 min 2 min 239 W/m 27,0 km/h (4 Bft) 98,18 %
01.01.2018 11:04 7,0 C 8,9 C 6,7 C 88 % 0 lf 1002,2 hPa 0,0 l/m 2 min 2 min 198 W/m 33,8 km/h (5 Bft) 100,00 %
01.01.2018 11:06 7,1 C 8,9 C 6,7 C 87 % 0 lf 1002,3 hPa 0,0 l/m 2 min 2 min 147 W/m 40,6 km/h (6 Bft) 98,00 %
01.01.2018 11:08 7,1 C 8,9 C 6,7 C 87 % 0 lf 1002,3 hPa 0,0 l/m 2 min 2 min 161 W/m 42,8 km/h (6 Bft) 100,00 %
01.01.2018 11:10 7,2 C 9,4 C 6,7 C 87 % 0 lf 1002,2 hPa 0,0 l/m 2 min 2 min 196 W/m 36,0 km/h (5 Bft) 97,87 %
01.01.2018 11:12 7,2 C 10,0 C 6,7 C 86 % 0 lf 1002,2 hPa 0,0 l/m 2 min 0 min 215 W/m 27,0 km/h (4 Bft) 100,00 %
01.01.2018 11:14 7,3 C 9,4 C 6,7 C 86 % 0 lf 1002,1 hPa 0,0 l/m 2 min 0 min 200 W/m 38,3 km/h (5 Bft) 98,00 %
01.01.2018 11:16 7,3 C 9,4 C 6,7 C 86 % 0 lf 1002,1 hPa 0,0 l/m 2 min 0 min 121 W/m 27,0 km/h (4 Bft) 100,00 %
01.01.2018 11:18 7,4 C 9,4 C 6,7 C 86 % 0 lf 1002,0 hPa 0,0 l/m 2 min 0 min 137 W/m 29,3 km/h (5 Bft) 95,74 %
01.01.2018 11:20 7,4 C 10,0 C 6,7 C 86 % 0 lf 1002,2 hPa 0,0 l/m 2 min 0 min 215 W/m 40,6 km/h (6 Bft) 98,21 %
01.01.2018 11:22 7,5 C 10,0 C 6,7 C 86 % 0 lf 1002,1 hPa 0,0 l/m 2 min 0 min 211 W/m 51,8 km/h (7 Bft) 100,00 %
01.01.2018 11:24 7,5 C 10,0 C 6,7 C 85 % 0 lf 1002,1 hPa 0,0 l/m 2 min 0 min 179 W/m 54,1 km/h (7 Bft) 100,00 %
01.01.2018 11:26 7,6 C 10,0 C 6,7 C 85 % 0 lf 1002,0 hPa 0,0 l/m 2 min 0 min 152 W/m 40,6 km/h (6 Bft) 98,00 %
01.01.2018 11:28 7,6 C 10,0 C 6,7 C 85 % 0 lf 1002,0 hPa 0,0 l/m 2 min 0 min 243 W/m 29,3 km/h (5 Bft) 97,14 %
01.01.2018 11:30 7,6 C 10,6 C 6,7 C 84 % 0 lf 1001,9 hPa 0,0 l/m 2 min 2 min 193 W/m 36,0 km/h (5 Bft) 95,74 %
01.01.2018 11:32 7,7 C 11,1 C 7,2 C 84 % 0 lf 1002,0 hPa 0,0 l/m 2 min 0 min 270 W/m 36,0 km/h (5 Bft) 92,86 %
01.01.2018 11:34 7,7 C 11,7 C 7,2 C 84 % 0 lf 1001,9 hPa 0,0 l/m 2 min 0 min 179 W/m 31,5 km/h (5 Bft) 95,92 %
01.01.2018 11:36 7,7 C 12,2 C 7,2 C 84 % 0 lf 1001,7 hPa 0,0 l/m 2 min 0 min 259 W/m 42,8 km/h (6 Bft) 97,22 %
01.01.2018 11:38 7,8 C 12,2 C 7,2 C 84 % 0 lf 1001,8 hPa 0,0 l/m 2 min 0 min 247 W/m 36,0 km/h (5 Bft) 97,87 %
01.01.2018 11:40 7,9 C 12,8 C 7,2 C 83 % 0 lf 1001,7 hPa 0,0 l/m 2 min 0 min 259 W/m 38,3 km/h (5 Bft) 98,18 %
01.01.2018 11:42 7,9 C 12,2 C 7,2 C 83 % 0 lf 1001,6 hPa 0,0 l/m 2 min 0 min 264 W/m 33,8 km/h (5 Bft) 92,00 %
01.01.2018 11:44 7,9 C 12,2 C 7,2 C 83 % 0 lf 1001,7 hPa 0,0 l/m 2 min 0 min 250 W/m 33,8 km/h (5 Bft) 97,14 %
01.01.2018 11:46 8,0 C 13,3 C 7,2 C 83 % 0 lf 1001,6 hPa 0,0 l/m 2 min 0 min 242 W/m 27,0 km/h (4 Bft) 97,87 %
01.01.2018 11:48 8,1 C 12,8 C 7,2 C 82 % 0 lf 1001,6 hPa 0,0 l/m 2 min 0 min 255 W/m 45,1 km/h (6 Bft) 98,18 %
01.01.2018 11:50 8,1 C 12,8 C 7,2 C 82 % 0 lf 1001,6 hPa 0,0 l/m 2 min 0 min 236 W/m 33,8 km/h (5 Bft) 96,00 %
01.01.2018 11:52 8,2 C 12,2 C 7,2 C 82 % 0 lf 1001,6 hPa 0,0 l/m 2 min 0 min 258 W/m 40,6 km/h (6 Bft) 97,87 %
01.01.2018 11:54 8,2 C 11,7 C 7,2 C 81 % 0 lf 1001,5 hPa 0,0 l/m 2 min 0 min 196 W/m 31,5 km/h (5 Bft) 93,62 %
01.01.2018 11:56 8,2 C 11,1 C 7,2 C 81 % 0 lf 1001,5 hPa 0,0 l/m 2 min 0 min 171 W/m 40,6 km/h (6 Bft) 92,11 %
01.01.2018 11:58 8,2 C 10,6 C 7,2 C 81 % 0 lf 1001,5 hPa 0,0 l/m 2 min 0 min 177 W/m 27,0 km/h (4 Bft) 95,74 %
01.01.2018 12:00 8,2 C 11,1 C 7,2 C 81 % 0 lf 1001,3 hPa 0,0 l/m 0 min 0 min 123 W/m 29,3 km/h (5 Bft) 97,87 %
01.01.2018 12:02 8,3 C 12,2 C 7,2 C 81 % 0 lf 1001,3 hPa 0,0 l/m 2 min 0 min 279 W/m 24,8 km/h (4 Bft) 96,36 %
01.01.2018 12:04 8,3 C 11,7 C 7,2 C 81 % 0 lf 1001,3 hPa 0,0 l/m 2 min 0 min 224 W/m 20,3 km/h (4 Bft) 93,62 %
01.01.2018 12:06 8,3 C 11,7 C 7,2 C 81 % 0 lf 1001,3 hPa 0,0 l/m 2 min 0 min 222 W/m 40,6 km/h (6 Bft) 95,74 %
01.01.2018 12:08 8,3 C 12,8 C 7,2 C 81 % 0 lf 1001,3 hPa 0,0 l/m 2 min 0 min 242 W/m 29,3 km/h (5 Bft) 89,47 %
01.01.2018 12:10 8,3 C 12,2 C 7,2 C 80 % 0 lf 1001,2 hPa 0,0 l/m 2 min 0 min 255 W/m 36,0 km/h (5 Bft) 95,74 %
01.01.2018 12:12 8,4 C 12,8 C 7,2 C 80 % 0 lf 1001,2 hPa 0,0 l/m 2 min 0 min 253 W/m 29,3 km/h (5 Bft) 89,36 %
01.01.2018 12:14 8,4 C 12,8 C 7,2 C 80 % 0 lf 1001,2 hPa 0,0 l/m 2 min 0 min 253 W/m 20,3 km/h (4 Bft) 93,62 %
01.01.2018 12:16 8,4 C 13,3 C 7,8 C 81 % 0 lf 1001,2 hPa 0,0 l/m 2 min 0 min 280 W/m 29,3 km/h (5 Bft) 95,65 %
01.01.2018 12:18 8,4 C 11,1 C 7,8 C 80 % 0 lf 1001,1 hPa 0,0 l/m 2 min 0 min 246 W/m 33,8 km/h (5 Bft) 93,62 %
01.01.2018 12:20 8,4 C 11,7 C 7,8 C 80 % 0 lf 1001,2 hPa 0,0 l/m 2 min 0 min 167 W/m 31,5 km/h (5 Bft) 89,36 %
01.01.2018 12:22 8,5 C 11,7 C 7,8 C 80 % 0 lf 1001,1 hPa 0,0 l/m 2 min 0 min 279 W/m 33,8 km/h (5 Bft) 95,74 %
01.01.2018 12:24 8,5 C 12,2 C 7,8 C 80 % 0 lf 1001,0 hPa 0,0 l/m 2 min 0 min 280 W/m 27,0 km/h (4 Bft) 97,87 %
01.01.2018 12:26 8,6 C 11,7 C 7,8 C 80 % 0 lf 1001,0 hPa 0,0 l/m 2 min 0 min 222 W/m 36,0 km/h (5 Bft) 93,48 %
01.01.2018 12:28 8,6 C 11,1 C 7,8 C 80 % 0 lf 1001,0 hPa 0,0 l/m 2 min 0 min 214 W/m 29,3 km/h (5 Bft) 95,74 %
01.01.2018 12:30 8,6 C 10,0 C 7,8 C 80 % 0 lf 1000,9 hPa 0,0 l/m 2 min 0 min 152 W/m 24,8 km/h (4 Bft) 93,62 %
01.01.2018 12:32 8,6 C 10,0 C 7,8 C 80 % 0 lf 1001,0 hPa 0,0 l/m 2 min 0 min 143 W/m 29,3 km/h (5 Bft) 93,62 %
01.01.2018 12:34 8,6 C 10,0 C 7,8 C 80 % 0 lf 1000,9 hPa 0,0 l/m 2 min 0 min 159 W/m 36,0 km/h (5 Bft) 89,36 %
01.01.2018 12:36 8,6 C 10,6 C 7,8 C 80 % 0 lf 1000,9 hPa 0,0 l/m 2 min 0 min 160 W/m 31,5 km/h (5 Bft) 93,62 %
01.01.2018 12:38 8,6 C 11,7 C 7,8 C 80 % 0 lf 1000,7 hPa 0,0 l/m 2 min 0 min 237 W/m 38,3 km/h (5 Bft) 93,48 %
01.01.2018 12:40 8,6 C 12,8 C 8,3 C 80 % 0 lf 1000,7 hPa 0,0 l/m 2 min 0 min 280 W/m 22,5 km/h (4 Bft) 91,49 %
01.01.2018 12:42 8,6 C 12,2 C 8,3 C 80 % 0 lf 1000,7 hPa 0,0 l/m 2 min 0 min 214 W/m 40,6 km/h (6 Bft) 93,62 %
01.01.2018 12:44 8,7 C 11,7 C 8,3 C 80 % 0 lf 1000,5 hPa 0,0 l/m 2 min 0 min 208 W/m 31,5 km/h (5 Bft) 93,62 %
01.01.2018 12:46 8,7 C 10,0 C 8,3 C 79 % 0 lf 1000,5 hPa 0,0 l/m 2 min 0 min 151 W/m 40,6 km/h (6 Bft) 95,74 %
01.01.2018 12:48 8,7 C 10,0 C 7,8 C 79 % 0 lf 1000,5 hPa 0,0 l/m 0 min 0 min 129 W/m 31,5 km/h (5 Bft) 91,49 %
01.01.2018 12:50 8,6 C 9,4 C 7,8 C 79 % 0 lf 1000,4 hPa 0,0 l/m 0 min 0 min 119 W/m 29,3 km/h (5 Bft) 93,62 %
01.01.2018 12:52 8,6 C 9,4 C 7,8 C 79 % 0 lf 1000,4 hPa 0,0 l/m 0 min 0 min 100 W/m 22,5 km/h (4 Bft) 95,74 %
01.01.2018 12:54 8,6 C 8,9 C 7,8 C 79 % 0 lf 1000,4 hPa 0,0 l/m 0 min 0 min 95 W/m 27,0 km/h (4 Bft) 95,74 %
01.01.2018 12:56 8,6 C 9,4 C 7,8 C 79 % 0 lf 1000,4 hPa 0,0 l/m 2 min 0 min 143 W/m 40,6 km/h (6 Bft) 93,62 %
01.01.2018 12:58 8,6 C 8,9 C 7,8 C 79 % 0 lf 1000,3 hPa 0,0 l/m 2 min 0 min 140 W/m 33,8 km/h (5 Bft) 95,65 %
01.01.2018 13:00 8,6 C 9,4 C 7,8 C 79 % 0 lf 1000,3 hPa 0,0 l/m 0 min 0 min 133 W/m 36,0 km/h (5 Bft) 95,74 %
01.01.2018 13:02 8,6 C 9,4 C 7,8 C 79 % 0 lf 1000,2 hPa 0,0 l/m 2 min 0 min 180 W/m 22,5 km/h (4 Bft) 95,74 %
01.01.2018 13:04 8,6 C 9,4 C 7,8 C 79 % 0 lf 1000,1 hPa 0,0 l/m 0 min 0 min 132 W/m 29,3 km/h (5 Bft) 95,74 %
01.01.2018 13:06 8,6 C 9,4 C 7,8 C 79 % 0 lf 1000,1 hPa 0,0 l/m 0 min 0 min 110 W/m 27,0 km/h (4 Bft) 95,74 %
01.01.2018 13:08 8,6 C 9,4 C 7,8 C 79 % 0 lf 1000,1 hPa 0,0 l/m 0 min 0 min 98 W/m 33,8 km/h (5 Bft) 93,62 %
01.01.2018 13:10 8,6 C 9,4 C 7,8 C 79 % 0 lf 1000,0 hPa 0,0 l/m 0 min 0 min 115 W/m 29,3 km/h (5 Bft) 97,83 %
01.01.2018 13:12 8,5 C 9,4 C 7,8 C 79 % 0 lf 999,9 hPa 0,0 l/m 2 min 0 min 139 W/m 31,5 km/h (5 Bft) 97,87 %
01.01.2018 13:14 8,6 C 9,4 C 7,8 C 79 % 0 lf 999,8 hPa 0,0 l/m 0 min 0 min 130 W/m 22,5 km/h (4 Bft) 97,87 %
01.01.2018 13:16 8,6 C 9,4 C 7,8 C 79 % 0 lf 999,8 hPa 0,0 l/m 0 min 0 min 130 W/m 29,3 km/h (5 Bft) 100,00 %
01.01.2018 13:18 8,5 C 9,4 C 7,8 C 79 % 0 lf 999,8 hPa 0,0 l/m 0 min 0 min 125 W/m 40,6 km/h (6 Bft) 97,87 %
01.01.2018 13:20 8,6 C 8,9 C 7,8 C 78 % 0 lf 999,7 hPa 0,0 l/m 0 min 0 min 125 W/m 24,8 km/h (4 Bft) 100,00 %
01.01.2018 13:22 8,6 C 9,4 C 7,8 C 78 % 0 lf 999,7 hPa 0,0 l/m 2 min 0 min 143 W/m 29,3 km/h (5 Bft) 93,62 %
01.01.2018 13:24 8,6 C 9,4 C 8,3 C 78 % 0 lf 999,7 hPa 0,0 l/m 0 min 0 min 131 W/m 27,0 km/h (4 Bft) 100,00 %
01.01.2018 13:26 8,6 C 9,4 C 8,3 C 79 % 0 lf 999,7 hPa 0,0 l/m 0 min 0 min 121 W/m 22,5 km/h (4 Bft) 97,87 %
01.01.2018 13:28 8,6 C 9,4 C 8,3 C 79 % 0 lf 999,6 hPa 0,0 l/m 2 min 0 min 135 W/m 20,3 km/h (4 Bft) 100,00 %
01.01.2018 13:30 8,6 C 10,0 C 8,3 C 79 % 0 lf 999,6 hPa 0,0 l/m 2 min 0 min 152 W/m 20,3 km/h (4 Bft) 100,00 %
01.01.2018 13:32 8,6 C 10,0 C 8,3 C 79 % 0 lf 999,4 hPa 0,0 l/m 2 min 0 min 134 W/m 24,8 km/h (4 Bft) 100,00 %
01.01.2018 13:34 8,7 C 9,4 C 8,3 C 78 % 0 lf 999,4 hPa 0,0 l/m 0 min 0 min 108 W/m 24,8 km/h (4 Bft) 97,87 %
01.01.2018 13:36 8,7 C 9,4 C 7,8 C 78 % 0 lf 999,4 hPa 0,0 l/m 0 min 0 min 83 W/m 15,8 km/h (3 Bft) 100,00 %
01.01.2018 13:38 8,7 C 9,4 C 7,8 C 78 % 0 lf 999,4 hPa 0,0 l/m 0 min 0 min 76 W/m 15,8 km/h (3 Bft) 100,00 %
01.01.2018 13:40 8,7 C 8,9 C 7,8 C 78 % 0 lf 999,4 hPa 0,0 l/m 0 min 0 min 69 W/m 20,3 km/h (4 Bft) 100,00 %
01.01.2018 13:42 8,7 C 8,9 C 7,8 C 78 % 0 lf 999,4 hPa 0,0 l/m 0 min 0 min 65 W/m 20,3 km/h (4 Bft) 100,00 %
01.01.2018 13:44 8,7 C 8,9 C 7,8 C 78 % 0 lf 999,4 hPa 0,0 l/m 0 min 0 min 61 W/m 18,0 km/h (3 Bft) 100,00 %
01.01.2018 13:46 8,7 C 8,9 C 7,2 C 78 % 0 lf 999,3 hPa 0,0 l/m 0 min 0 min 54 W/m 33,8 km/h (5 Bft) 100,00 %
01.01.2018 13:48 8,6 C 8,3 C 7,2 C 78 % 0 lf 999,3 hPa 0,0 l/m 0 min 0 min 55 W/m 15,8 km/h (3 Bft) 97,83 %
01.01.2018 13:50 8,6 C 8,9 C 7,2 C 78 % 0 lf 999,2 hPa 0,0 l/m 0 min 0 min 61 W/m 33,8 km/h (5 Bft) 97,87 %
01.01.2018 13:52 8,6 C 8,3 C 7,2 C 78 % 0 lf 999,2 hPa 0,0 l/m 0 min 0 min 55 W/m 29,3 km/h (5 Bft) 97,87 %
01.01.2018 13:54 8,6 C 8,3 C 7,2 C 78 % 0 lf 999,1 hPa 0,0 l/m 0 min 0 min 55 W/m 22,5 km/h (4 Bft) 100,00 %
01.01.2018 13:56 8,6 C 8,3 C 7,2 C 78 % 0 lf 999,1 hPa 0,0 l/m 0 min 0 min 53 W/m 20,3 km/h (4 Bft) 97,87 %
01.01.2018 13:58 8,5 C 8,3 C 7,2 C 78 % 0 lf 999,0 hPa 0,0 l/m 0 min 0 min 54 W/m 15,8 km/h (3 Bft) 100,00 %
01.01.2018 14:00 8,5 C 8,3 C 7,2 C 78 % 0 lf 999,0 hPa 0,0 l/m 0 min 0 min 54 W/m 22,5 km/h (4 Bft) 95,65 %
01.01.2018 14:02 8,5 C 8,3 C 7,2 C 78 % 0 lf 999,0 hPa 0,0 l/m 0 min 0 min 52 W/m 29,3 km/h (5 Bft) 100,00 %
01.01.2018 14:04 8,5 C 8,3 C 7,2 C 78 % 0 lf 998,9 hPa 0,0 l/m 0 min 0 min 56 W/m 20,3 km/h (4 Bft) 97,87 %
01.01.2018 14:06 8,5 C 8,3 C 7,8 C 78 % 0 lf 998,8 hPa 0,0 l/m 0 min 0 min 64 W/m 15,8 km/h (3 Bft) 97,87 %
01.01.2018 14:08 8,5 C 8,3 C 7,8 C 78 % 0 lf 998,8 hPa 0,0 l/m 0 min 0 min 65 W/m 20,3 km/h (4 Bft) 97,87 %
01.01.2018 14:10 8,5 C 8,3 C 7,8 C 78 % 0 lf 998,8 hPa 0,0 l/m 0 min 0 min 69 W/m 27,0 km/h (4 Bft) 97,87 %
01.01.2018 14:12 8,4 C 8,3 C 7,8 C 78 % 0 lf 998,8 hPa 0,0 l/m 0 min 0 min 67 W/m 40,6 km/h (6 Bft) 97,83 %
01.01.2018 14:14 8,4 C 8,3 C 7,2 C 78 % 0 lf 998,9 hPa 0,0 l/m 0 min 0 min 59 W/m 24,8 km/h (4 Bft) 97,87 %
01.01.2018 14:16 8,4 C 8,3 C 7,2 C 78 % 0 lf 998,8 hPa 0,0 l/m 0 min 0 min 52 W/m 33,8 km/h (5 Bft) 97,87 %
01.01.2018 14:18 8,4 C 8,3 C 7,2 C 78 % 0 lf 998,8 hPa 0,0 l/m 0 min 0 min 40 W/m 31,5 km/h (5 Bft) 95,74 %
01.01.2018 14:20 8,4 C 8,3 C 7,2 C 78 % 0 lf 998,7 hPa 0,0 l/m 0 min 0 min 41 W/m 31,5 km/h (5 Bft) 97,87 %
01.01.2018 14:22 8,4 C 8,3 C 7,2 C 78 % 0 lf 998,6 hPa 0,0 l/m 0 min 0 min 40 W/m 24,8 km/h (4 Bft) 97,87 %
01.01.2018 14:24 8,3 C 8,3 C 7,2 C 78 % 0 lf 998,6 hPa 0,0 l/m 0 min 0 min 42 W/m 18,0 km/h (3 Bft) 97,83 %
01.01.2018 14:26 8,3 C 8,3 C 7,2 C 79 % 0 lf 998,5 hPa 0,0 l/m 0 min 0 min 40 W/m 24,8 km/h (4 Bft) 97,87 %
01.01.2018 14:28 8,3 C 8,3 C 7,2 C 79 % 0 lf 998,5 hPa 0,0 l/m 0 min 0 min 46 W/m 22,5 km/h (4 Bft) 97,87 %
01.01.2018 14:30 8,3 C 8,3 C 7,2 C 79 % 0 lf 998,5 hPa 0,0 l/m 0 min 0 min 46 W/m 18,0 km/h (3 Bft) 95,74 %
01.01.2018 14:32 8,3 C 8,3 C 7,2 C 79 % 0 lf 998,5 hPa 0,0 l/m 0 min 0 min 46 W/m 18,0 km/h (3 Bft) 97,87 %
01.01.2018 14:34 8,3 C 8,3 C 7,2 C 79 % 0 lf 998,5 hPa 0,0 l/m 0 min 0 min 46 W/m 22,5 km/h (4 Bft) 95,65 %
01.01.2018 14:36 8,3 C 8,3 C 7,2 C 79 % 0 lf 998,5 hPa 0,0 l/m 0 min 0 min 44 W/m 27,0 km/h (4 Bft) 93,62 %
01.01.2018 14:38 8,3 C 8,3 C 7,2 C 79 % 0 lf 998,5 hPa 0,0 l/m 0 min 0 min 42 W/m 18,0 km/h (3 Bft) 100,00 %
01.01.2018 14:40 8,3 C 8,3 C 7,2 C 79 % 0 lf 998,4 hPa 0,0 l/m 0 min 0 min 37 W/m 15,8 km/h (3 Bft) 97,87 %
01.01.2018 14:42 8,2 C 8,3 C 7,2 C 79 % 0 lf 998,5 hPa 0,0 l/m 0 min 0 min 33 W/m 22,5 km/h (4 Bft) 100,00 %
01.01.2018 14:44 8,2 C 8,3 C 7,2 C 79 % 0 lf 998,3 hPa 0,0 l/m 0 min 0 min 32 W/m 20,3 km/h (4 Bft) 100,00 %
01.01.2018 14:46 8,2 C 8,3 C 7,2 C 79 % 0 lf 998,2 hPa 0,0 l/m 0 min 0 min 32 W/m 18,0 km/h (3 Bft) 97,83 %
01.01.2018 14:48 8,2 C 8,3 C 7,2 C 79 % 0 lf 998,1 hPa 0,0 l/m 0 min 0 min 33 W/m 18,0 km/h (3 Bft) 100,00 %
01.01.2018 14:50 8,2 C 8,3 C 7,2 C 79 % 0 lf 998,0 hPa 0,0 l/m 0 min 0 min 31 W/m 22,5 km/h (4 Bft) 97,87 %
01.01.2018 14:52 8,2 C 7,8 C 7,2 C 79 % 0 lf 998,0 hPa 0,0 l/m 0 min 0 min 29 W/m 15,8 km/h (3 Bft) 95,74 %
01.01.2018 14:54 8,2 C 7,8 C 7,2 C 79 % 0 lf 997,9 hPa 0,0 l/m 0 min 0 min 29 W/m 13,5 km/h (3 Bft) 97,87 %
01.01.2018 14:56 8,2 C 7,8 C 7,2 C 79 % 0 lf 997,9 hPa 0,0 l/m 0 min 0 min 26 W/m 31,5 km/h (5 Bft) 95,74 %
01.01.2018 14:58 8,2 C 7,8 C 6,7 C 79 % 0 lf 997,8 hPa 0,0 l/m 0 min 0 min 26 W/m 22,5 km/h (4 Bft) 95,65 %
01.01.2018 15:00 8,2 C 7,8 C 6,7 C 80 % 0 lf 997,7 hPa 0,0 l/m 0 min 0 min 26 W/m 15,8 km/h (3 Bft) 95,74 %
01.01.2018 15:02 8,2 C 7,8 C 6,7 C 80 % 0 lf 997,8 hPa 0,0 l/m 0 min 0 min 26 W/m 20,3 km/h (4 Bft) 95,74 %
01.01.2018 15:04 8,1 C 7,8 C 6,7 C 80 % 0 lf 997,7 hPa 0,0 l/m 0 min 0 min 27 W/m 18,0 km/h (3 Bft) 97,87 %
01.01.2018 15:06 8,1 C 7,8 C 6,7 C 80 % 0 lf 997,6 hPa 0,0 l/m 0 min 0 min 29 W/m 18,0 km/h (3 Bft) 93,62 %
01.01.2018 15:08 8,1 C 7,8 C 6,7 C 80 % 0 lf 997,6 hPa 0,0 l/m 0 min 0 min 31 W/m 18,0 km/h (3 Bft) 97,87 %
01.01.2018 15:10 8,1 C 7,8 C 6,7 C 80 % 0 lf 997,6 hPa 0,0 l/m 0 min 0 min 34 W/m 20,3 km/h (4 Bft) 95,65 %
01.01.2018 15:12 8,1 C 7,8 C 6,7 C 80 % 0 lf 997,5 hPa 0,0 l/m 0 min 0 min 32 W/m 15,8 km/h (3 Bft) 95,74 %
01.01.2018 15:14 8,1 C 7,8 C 6,7 C 80 % 0 lf 997,4 hPa 0,0 l/m 0 min 0 min 27 W/m 20,3 km/h (4 Bft) 95,74 %
01.01.2018 15:16 8,1 C 7,8 C 6,7 C 80 % 0 lf 997,3 hPa 0,0 l/m 0 min 0 min 24 W/m 20,3 km/h (4 Bft) 93,62 %
01.01.2018 15:18 8,1 C 7,8 C 6,7 C 80 % 0 lf 997,3 hPa 0,0 l/m 0 min 0 min 19 W/m 24,8 km/h (4 Bft) 89,36 %
01.01.2018 15:20 8,1 C 7,8 C 6,7 C 80 % 0 lf 997,3 hPa 0,0 l/m 0 min 0 min 18 W/m 18,0 km/h (3 Bft) 95,74 %
01.01.2018 15:22 8,1 C 7,8 C 6,7 C 80 % 0 lf 997,2 hPa 0,0 l/m 0 min 0 min 18 W/m 18,0 km/h (3 Bft) 93,48 %
01.01.2018 15:24 8,1 C 7,8 C 6,7 C 80 % 0 lf 997,2 hPa 0,0 l/m 0 min 0 min 18 W/m 20,3 km/h (4 Bft) 91,49 %
01.01.2018 15:26 8,0 C 7,8 C 6,7 C 80 % 0 lf 997,2 hPa 0,0 l/m 0 min 0 min 18 W/m 18,0 km/h (3 Bft) 95,74 %
01.01.2018 15:28 8,0 C 7,8 C 6,7 C 80 % 0 lf 997,1 hPa 0,0 l/m 0 min 0 min 18 W/m 18,0 km/h (3 Bft) 91,49 %
01.01.2018 15:30 8,0 C 7,8 C 6,7 C 80 % 0 lf 997,2 hPa 0,0 l/m 0 min 2 min 17 W/m 20,3 km/h (4 Bft) 95,74 %
01.01.2018 15:32 8,0 C 7,8 C 6,7 C 80 % 0 lf 997,1 hPa 0,0 l/m 0 min 0 min 16 W/m 29,3 km/h (5 Bft) 93,62 %
01.01.2018 15:34 8,0 C 7,8 C 6,7 C 81 % 0 lf 997,1 hPa 0,0 l/m 0 min 0 min 16 W/m 18,0 km/h (3 Bft) 95,65 %
01.01.2018 15:36 8,0 C 7,8 C 6,7 C 81 % 0 lf 997,1 hPa 0,0 l/m 0 min 2 min 15 W/m 18,0 km/h (3 Bft) 95,74 %
01.01.2018 15:38 8,0 C 7,2 C 6,1 C 81 % 0 lf 997,0 hPa 0,0 l/m 0 min 2 min 12 W/m 18,0 km/h (3 Bft) 95,74 %
01.01.2018 15:40 8,0 C 7,2 C 5,6 C 81 % 0 lf 997,0 hPa 0,0 l/m 0 min 2 min 11 W/m 18,0 km/h (3 Bft) 93,62 %
01.01.2018 15:42 7,9 C 6,7 C 5,6 C 81 % 0 lf 997,0 hPa 0,0 l/m 0 min 2 min 10 W/m 15,8 km/h (3 Bft) 93,62 %
01.01.2018 15:44 7,9 C 6,7 C 5,6 C 82 % 1 lf 996,9 hPa 0,0 l/m 0 min 2 min 9 W/m 15,8 km/h (3 Bft) 97,83 %
01.01.2018 15:46 7,9 C 6,1 C 5,0 C 82 % 1 lf 996,9 hPa 0,0 l/m 0 min 2 min 8 W/m 15,8 km/h (3 Bft) 95,74 %
01.01.2018 15:48 7,9 C 6,1 C 5,0 C 83 % 3 lf 996,8 hPa 0,2 l/m 0 min 2 min 7 W/m 13,5 km/h (3 Bft) 95,74 %
01.01.2018 15:50 7,9 C 5,6 C 5,0 C 83 % 2 lf 996,7 hPa 0,0 l/m 0 min 2 min 5 W/m 11,3 km/h (2 Bft) 93,62 %
01.01.2018 15:52 7,9 C 5,6 C 5,0 C 83 % 1 lf 996,7 hPa 0,0 l/m 0 min 2 min 5 W/m 11,3 km/h (2 Bft) 93,62 %
01.01.2018 15:54 7,9 C 5,6 C 5,0 C 84 % 1 lf 996,7 hPa 0,0 l/m 0 min 2 min 7 W/m 13,5 km/h (3 Bft) 95,74 %
01.01.2018 15:56 7,8 C 5,6 C 5,0 C 84 % 1 lf 996,6 hPa 0,0 l/m 0 min 2 min 8 W/m 11,3 km/h (2 Bft) 95,65 %
01.01.2018 15:58 7,8 C 5,6 C 5,0 C 84 % 1 lf 996,6 hPa 0,0 l/m 0 min 2 min 9 W/m 13,5 km/h (3 Bft) 95,74 %
01.01.2018 16:00 7,7 C 5,6 C 5,0 C 85 % 1 lf 996,6 hPa 0,0 l/m 0 min 2 min 7 W/m 13,5 km/h (3 Bft) 95,74 %
01.01.2018 16:02 7,7 C 5,6 C 5,0 C 85 % 0 lf 996,6 hPa 0,0 l/m 0 min 2 min 7 W/m 20,3 km/h (4 Bft) 95,74 %
01.01.2018 16:04 7,7 C 5,6 C 5,0 C 85 % 0 lf 996,6 hPa 0,0 l/m 0 min 2 min 7 W/m 13,5 km/h (3 Bft) 95,74 %
01.01.2018 16:06 7,6 C 5,6 C 5,0 C 86 % 1 lf 996,5 hPa 0,2 l/m 0 min 2 min 7 W/m 18,0 km/h (3 Bft) 95,74 %
01.01.2018 16:08 7,6 C 5,6 C 5,0 C 86 % 3 lf 996,5 hPa 0,0 l/m 0 min 2 min 5 W/m 15,8 km/h (3 Bft) 93,48 %
01.01.2018 16:10 7,6 C 5,6 C 5,0 C 86 % 3 lf 996,5 hPa 0,2 l/m 0 min 2 min 5 W/m 18,0 km/h (3 Bft) 95,74 %
01.01.2018 16:12 7,5 C 5,6 C 5,0 C 87 % 3 lf 996,4 hPa 0,0 l/m 0 min 2 min 5 W/m 18,0 km/h (3 Bft) 95,74 %
01.01.2018 16:14 7,4 C 5,6 C 5,0 C 87 % 4 lf 996,4 hPa 0,0 l/m 0 min 2 min 5 W/m 13,5 km/h (3 Bft) 91,49 %
01.01.2018 16:16 7,4 C 5,6 C 5,0 C 87 % 7 lf 996,4 hPa 0,0 l/m 0 min 2 min 3 W/m 15,8 km/h (3 Bft) 95,74 %
01.01.2018 16:18 7,4 C 5,6 C 5,0 C 88 % 8 lf 996,3 hPa 0,2 l/m 0 min 2 min 5 W/m 20,3 km/h (4 Bft) 95,74 %
01.01.2018 16:20 7,3 C 5,6 C 5,0 C 88 % 10 lf 996,2 hPa 0,0 l/m 0 min 2 min 4 W/m 13,5 km/h (3 Bft) 95,65 %
01.01.2018 16:22 7,3 C 5,6 C 5,0 C 88 % 10 lf 996,2 hPa 0,0 l/m 0 min 2 min 0 W/m 11,3 km/h (2 Bft) 95,74 %
01.01.2018 16:24 7,2 C 5,6 C 5,0 C 89 % 10 lf 996,2 hPa 0,0 l/m 0 min 2 min 0 W/m 11,3 km/h (2 Bft) 95,74 %
01.01.2018 16:26 7,2 C 5,6 C 5,0 C 89 % 10 lf 996,1 hPa 0,0 l/m 0 min 2 min 0 W/m 11,3 km/h (2 Bft) 93,62 %
01.01.2018 16:28 7,2 C 5,6 C 5,0 C 89 % 10 lf 996,1 hPa 0,2 l/m 0 min 2 min 0 W/m 11,3 km/h (2 Bft) 93,62 %
01.01.2018 16:30 7,2 C 5,6 C 5,0 C 89 % 12 lf 996,1 hPa 0,0 l/m 0 min 2 min 0 W/m 6,8 km/h (2 Bft) 97,87 %
01.01.2018 16:32 7,1 C 5,6 C 5,0 C 89 % 12 lf 996,1 hPa 0,0 l/m 0 min 2 min 0 W/m 9,0 km/h (2 Bft) 100,00 %
01.01.2018 16:34 7,1 C 5,6 C 5,0 C 89 % 13 lf 996,1 hPa 0,0 l/m 0 min 2 min 0 W/m 18,0 km/h (3 Bft) 95,74 %
01.01.2018 16:36 7,1 C 5,6 C 5,0 C 90 % 13 lf 996,0 hPa 0,0 l/m 0 min 2 min 0 W/m 15,8 km/h (3 Bft) 97,87 %
01.01.2018 16:38 7,1 C 5,6 C 5,0 C 90 % 13 lf 996,0 hPa 0,2 l/m 0 min 2 min 0 W/m 18,0 km/h (3 Bft) 97,87 %
01.01.2018 16:40 7,0 C 5,6 C 5,0 C 90 % 13 lf 996,0 hPa 0,0 l/m 0 min 2 min 0 W/m 24,8 km/h (4 Bft) 97,87 %
01.01.2018 16:42 7,0 C 5,6 C 5,0 C 90 % 13 lf 995,9 hPa 0,0 l/m 0 min 2 min 0 W/m 20,3 km/h (4 Bft) 97,83 %
01.01.2018 16:44 6,9 C 5,6 C 5,0 C 90 % 13 lf 995,8 hPa 0,2 l/m 0 min 2 min 0 W/m 20,3 km/h (4 Bft) 95,74 %
01.01.2018 16:46 6,9 C 5,6 C 5,0 C 91 % 13 lf 995,9 hPa 0,0 l/m 0 min 2 min 0 W/m 20,3 km/h (4 Bft) 95,74 %
01.01.2018 16:48 6,9 C 5,6 C 4,4 C 91 % 13 lf 995,8 hPa 0,0 l/m 0 min 2 min 0 W/m 15,8 km/h (3 Bft) 97,87 %
01.01.2018 16:50 6,8 C 5,6 C 4,4 C 91 % 13 lf 995,8 hPa 0,2 l/m 0 min 2 min 0 W/m 18,0 km/h (3 Bft) 93,62 %
01.01.2018 16:52 6,8 C 5,6 C 4,4 C 91 % 13 lf 995,9 hPa 0,0 l/m 0 min 2 min 0 W/m 18,0 km/h (3 Bft) 97,87 %
01.01.2018 16:54 6,8 C 5,6 C 4,4 C 91 % 13 lf 995,8 hPa 0,0 l/m 0 min 2 min 0 W/m 20,3 km/h (4 Bft) 97,83 %
01.01.2018 16:56 6,7 C 5,6 C 4,4 C 91 % 13 lf 995,7 hPa 0,2 l/m 0 min 2 min 0 W/m 18,0 km/h (3 Bft) 97,87 %
01.01.2018 16:58 6,7 C 5,6 C 4,4 C 91 % 13 lf 995,7 hPa 0,0 l/m 0 min 2 min 0 W/m 15,8 km/h (3 Bft) 97,87 %
01.01.2018 17:00 6,7 C 5,6 C 4,4 C 92 % 13 lf 995,7 hPa 0,0 l/m 0 min 2 min 0 W/m 15,8 km/h (3 Bft) 97,87 %
01.01.2018 17:02 6,6 C 5,6 C 4,4 C 92 % 13 lf 995,7 hPa 0,0 l/m 0 min 2 min 0 W/m 22,5 km/h (4 Bft) 97,87 %
01.01.2018 17:04 6,6 C 5,6 C 4,4 C 92 % 12 lf 995,7 hPa 0,0 l/m 0 min 2 min 0 W/m 15,8 km/h (3 Bft) 100,00 %
01.01.2018 17:06 6,6 C 5,6 C 4,4 C 92 % 12 lf 995,7 hPa 0,0 l/m 0 min 2 min 0 W/m 22,5 km/h (4 Bft) 100,00 %
01.01.2018 17:08 6,6 C 5,6 C 4,4 C 92 % 12 lf 995,6 hPa 0,0 l/m 0 min 2 min 0 W/m 20,3 km/h (4 Bft) 100,00 %
01.01.2018 17:10 6,5 C 5,6 C 4,4 C 92 % 13 lf 995,7 hPa 0,0 l/m 0 min 2 min 0 W/m 15,8 km/h (3 Bft) 100,00 %
01.01.2018 17:12 6,5 C 5,6 C 4,4 C 92 % 13 lf 995,6 hPa 0,0 l/m 0 min 2 min 0 W/m 15,8 km/h (3 Bft) 100,00 %
01.01.2018 17:14 6,4 C 5,6 C 4,4 C 92 % 13 lf 995,5 hPa 0,2 l/m 0 min 2 min 0 W/m 11,3 km/h (2 Bft) 100,00 %
01.01.2018 17:16 6,4 C 5,6 C 4,4 C 93 % 13 lf 995,5 hPa 0,0 l/m 0 min 2 min 0 W/m 15,8 km/h (3 Bft) 97,87 %
01.01.2018 17:18 6,4 C 5,6 C 4,4 C 93 % 13 lf 995,4 hPa 0,0 l/m 0 min 2 min 0 W/m 11,3 km/h (2 Bft) 100,00 %
01.01.2018 17:20 6,4 C 5,6 C 4,4 C 93 % 14 lf 995,4 hPa 0,0 l/m 0 min 2 min 0 W/m 11,3 km/h (2 Bft) 97,87 %
01.01.2018 17:22 6,4 C 5,6 C 4,4 C 93 % 14 lf 995,4 hPa 0,0 l/m 0 min 2 min 0 W/m 15,8 km/h (3 Bft) 97,87 %
01.01.2018 17:24 6,4 C 5,6 C 4,4 C 93 % 14 lf 995,4 hPa 0,2 l/m 0 min 2 min 0 W/m 22,5 km/h (4 Bft) 95,74 %
01.01.2018 17:26 6,4 C 5,6 C 4,4 C 93 % 14 lf 995,5 hPa 0,0 l/m 0 min 2 min 0 W/m 15,8 km/h (3 Bft) 100,00 %
01.01.2018 17:28 6,4 C 5,6 C 4,4 C 93 % 14 lf 995,3 hPa 0,0 l/m 0 min 2 min 0 W/m 18,0 km/h (3 Bft) 100,00 %
01.01.2018 17:30 6,4 C 5,6 C 4,4 C 93 % 14 lf 995,3 hPa 0,0 l/m 0 min 2 min 0 W/m 11,3 km/h (2 Bft) 100,00 %
01.01.2018 17:32 6,3 C 5,6 C 4,4 C 93 % 14 lf 995,2 hPa 0,0 l/m 0 min 2 min 0 W/m 15,8 km/h (3 Bft) 95,74 %
01.01.2018 17:34 6,3 C 5,6 C 4,4 C 93 % 14 lf 995,2 hPa 0,2 l/m 0 min 2 min 0 W/m 11,3 km/h (2 Bft) 97,87 %
01.01.2018 17:36 6,3 C 5,6 C 4,4 C 93 % 14 lf 995,2 hPa 0,0 l/m 0 min 2 min 0 W/m 15,8 km/h (3 Bft) 100,00 %
01.01.2018 17:38 6,3 C 5,6 C 4,4 C 93 % 15 lf 995,2 hPa 0,0 l/m 0 min 2 min 0 W/m 11,3 km/h (2 Bft) 97,87 %
01.01.2018 17:40 6,3 C 5,6 C 4,4 C 93 % 15 lf 995,2 hPa 0,2 l/m 0 min 2 min 0 W/m 11,3 km/h (2 Bft) 97,87 %
01.01.2018 17:42 6,2 C 5,0 C 4,4 C 94 % 15 lf 995,1 hPa 0,0 l/m 0 min 2 min 0 W/m 11,3 km/h (2 Bft) 95,65 %
01.01.2018 17:44 6,2 C 5,0 C 4,4 C 94 % 15 lf 995,1 hPa 0,0 l/m 0 min 2 min 0 W/m 9,0 km/h (2 Bft) 100,00 %
01.01.2018 17:46 6,2 C 5,0 C 4,4 C 94 % 15 lf 995,1 hPa 0,2 l/m 0 min 2 min 0 W/m 13,5 km/h (3 Bft) 97,87 %
01.01.2018 17:48 6,2 C 5,0 C 4,4 C 94 % 15 lf 995,0 hPa 0,0 l/m 0 min 2 min 0 W/m 13,5 km/h (3 Bft) 95,74 %
01.01.2018 17:50 6,2 C 5,0 C 4,4 C 94 % 15 lf 995,0 hPa 0,0 l/m 0 min 2 min 0 W/m 18,0 km/h (3 Bft) 93,62 %
01.01.2018 17:52 6,2 C 5,0 C 4,4 C 94 % 15 lf 995,0 hPa 0,2 l/m 0 min 2 min 0 W/m 20,3 km/h (4 Bft) 93,48 %
01.01.2018 17:54 6,1 C 5,0 C 4,4 C 94 % 15 lf 995,0 hPa 0,0 l/m 0 min 2 min 0 W/m 22,5 km/h (4 Bft) 93,62 %
01.01.2018 17:56 6,1 C 5,0 C 4,4 C 94 % 15 lf 995,0 hPa 0,0 l/m 0 min 2 min 0 W/m 15,8 km/h (3 Bft) 91,49 %
01.01.2018 17:58 6,1 C 5,0 C 4,4 C 94 % 15 lf 995,0 hPa 0,0 l/m 0 min 2 min 0 W/m 15,8 km/h (3 Bft) 89,36 %
01.01.2018 18:00 6,1 C 5,0 C 4,4 C 94 % 15 lf 995,0 hPa 0,2 l/m 0 min 2 min 0 W/m 18,0 km/h (3 Bft) 89,36 %
01.01.2018 18:02 6,1 C 5,0 C 4,4 C 94 % 15 lf 994,9 hPa 0,0 l/m 0 min 2 min 0 W/m 18,0 km/h (3 Bft) 95,74 %
01.01.2018 18:04 6,1 C 5,0 C 4,4 C 94 % 15 lf 994,9 hPa 0,2 l/m 0 min 2 min 0 W/m 18,0 km/h (3 Bft) 93,62 %
01.01.2018 18:06 6,1 C 5,0 C 4,4 C 94 % 15 lf 994,9 hPa 0,0 l/m 0 min 2 min 0 W/m 15,8 km/h (3 Bft) 89,13 %
01.01.2018 18:08 6,1 C 5,0 C 4,4 C 94 % 15 lf 994,8 hPa 0,0 l/m 0 min 2 min 0 W/m 15,8 km/h (3 Bft) 91,49 %
01.01.2018 18:10 6,0 C 5,0 C 4,4 C 94 % 15 lf 994,9 hPa 0,2 l/m 0 min 2 min 0 W/m 13,5 km/h (3 Bft) 89,36 %
01.01.2018 18:12 6,0 C 5,0 C 4,4 C 94 % 15 lf 994,8 hPa 0,0 l/m 0 min 2 min 0 W/m 11,3 km/h (2 Bft) 93,62 %
01.01.2018 18:14 6,0 C 5,0 C 4,4 C 94 % 15 lf 994,8 hPa 0,0 l/m 0 min 2 min 0 W/m 18,0 km/h (3 Bft) 93,62 %
01.01.2018 18:16 6,0 C 5,0 C 4,4 C 94 % 15 lf 994,8 hPa 0,0 l/m 0 min 2 min 0 W/m 20,3 km/h (4 Bft) 86,96 %
01.01.2018 18:18 5,9 C 5,0 C 4,4 C 94 % 15 lf 994,8 hPa 0,2 l/m 0 min 2 min 0 W/m 15,8 km/h (3 Bft) 95,74 %
01.01.2018 18:20 5,9 C 5,0 C 4,4 C 94 % 15 lf 994,7 hPa 0,0 l/m 0 min 2 min 0 W/m 18,0 km/h (3 Bft) 93,62 %
01.01.2018 18:22 5,9 C 5,0 C 4,4 C 94 % 15 lf 994,7 hPa 0,0 l/m 0 min 2 min 0 W/m 15,8 km/h (3 Bft) 95,74 %
01.01.2018 18:24 5,9 C 5,0 C 4,4 C 94 % 15 lf 994,7 hPa 0,0 l/m 0 min 2 min 0 W/m 18,0 km/h (3 Bft) 95,74 %
01.01.2018 18:26 5,9 C 5,0 C 4,4 C 94 % 15 lf 994,7 hPa 0,2 l/m 0 min 2 min 0 W/m 15,8 km/h (3 Bft) 95,74 %
01.01.2018 18:28 5,9 C 5,0 C 4,4 C 95 % 15 lf 994,7 hPa 0,0 l/m 0 min 2 min 0 W/m 9,0 km/h (2 Bft) 93,48 %
01.01.2018 18:30 5,8 C 5,0 C 4,4 C 95 % 15 lf 994,7 hPa 0,0 l/m 0 min 2 min 0 W/m 11,3 km/h (2 Bft) 95,74 %
01.01.2018 18:32 5,8 C 5,0 C 4,4 C 95 % 15 lf 994,7 hPa 0,2 l/m 0 min 2 min 0 W/m 11,3 km/h (2 Bft) 95,74 %
01.01.2018 18:34 5,8 C 5,0 C 4,4 C 95 % 15 lf 994,7 hPa 0,0 l/m 0 min 2 min 0 W/m 11,3 km/h (2 Bft) 93,62 %
01.01.2018 18:36 5,8 C 5,0 C 4,4 C 95 % 15 lf 994,7 hPa 0,0 l/m 0 min 2 min 0 W/m 11,3 km/h (2 Bft) 95,74 %
01.01.2018 18:38 5,8 C 5,0 C 4,4 C 95 % 15 lf 994,8 hPa 0,0 l/m 0 min 2 min 0 W/m 13,5 km/h (3 Bft) 97,87 %
01.01.2018 18:40 5,8 C 5,0 C 3,9 C 95 % 15 lf 994,7 hPa 0,0 l/m 0 min 2 min 0 W/m 15,8 km/h (3 Bft) 100,00 %
01.01.2018 18:42 5,7 C 5,0 C 3,9 C 95 % 15 lf 994,7 hPa 0,0 l/m 0 min 2 min 0 W/m 18,0 km/h (3 Bft) 100,00 %
01.01.2018 18:44 5,7 C 5,0 C 3,9 C 95 % 15 lf 994,7 hPa 0,0 l/m 0 min 2 min 0 W/m 24,8 km/h (4 Bft) 100,00 %
01.01.2018 18:46 5,7 C 4,4 C 3,9 C 95 % 15 lf 994,7 hPa 0,2 l/m 0 min 2 min 0 W/m 18,0 km/h (3 Bft) 100,00 %
01.01.2018 18:48 5,6 C 4,4 C 3,9 C 95 % 15 lf 994,6 hPa 0,0 l/m 0 min 2 min 0 W/m 22,5 km/h (4 Bft) 100,00 %
01.01.2018 18:50 5,6 C 5,0 C 3,9 C 95 % 15 lf 994,8 hPa 0,0 l/m 0 min 2 min 0 W/m 13,5 km/h (3 Bft) 93,62 %
01.01.2018 18:52 5,6 C 5,0 C 3,9 C 95 % 15 lf 994,7 hPa 0,0 l/m 0 min 2 min 0 W/m 15,8 km/h (3 Bft) 100,00 %
01.01.2018 18:54 5,6 C 5,0 C 3,9 C 95 % 15 lf 994,8 hPa 0,0 l/m 0 min 2 min 0 W/m 9,0 km/h (2 Bft) 97,87 %
01.01.2018 18:56 5,5 C 5,0 C 3,9 C 95 % 15 lf 994,8 hPa 0,0 l/m 0 min 2 min 0 W/m 15,8 km/h (3 Bft) 100,00 %
01.01.2018 18:58 5,5 C 4,4 C 3,9 C 95 % 15 lf 994,8 hPa 0,0 l/m 0 min 2 min 0 W/m 13,5 km/h (3 Bft) 100,00 %
01.01.2018 19:00 5,5 C 4,4 C 3,9 C 95 % 15 lf 994,7 hPa 0,0 l/m 0 min 2 min 0 W/m 11,3 km/h (2 Bft) 100,00 %
01.01.2018 19:02 5,5 C 4,4 C 3,9 C 95 % 15 lf 994,7 hPa 0,0 l/m 0 min 2 min 0 W/m 9,0 km/h (2 Bft) 97,87 %
01.01.2018 19:04 5,4 C 4,4 C 3,9 C 95 % 15 lf 994,7 hPa 0,2 l/m 0 min 2 min 0 W/m 15,8 km/h (3 Bft) 100,00 %
01.01.2018 19:06 5,4 C 4,4 C 3,9 C 95 % 15 lf 994,8 hPa 0,0 l/m 0 min 2 min 0 W/m 13,5 km/h (3 Bft) 95,74 %
01.01.2018 19:08 5,4 C 4,4 C 3,9 C 95 % 15 lf 994,8 hPa 0,0 l/m 0 min 2 min 0 W/m 11,3 km/h (2 Bft) 100,00 %
01.01.2018 19:10 5,4 C 4,4 C 3,9 C 95 % 15 lf 994,8 hPa 0,0 l/m 0 min 2 min 0 W/m 11,3 km/h (2 Bft) 100,00 %
01.01.2018 19:12 5,4 C 4,4 C 3,9 C 95 % 15 lf 994,8 hPa 0,0 l/m 0 min 2 min 0 W/m 6,8 km/h (2 Bft) 100,00 %
01.01.2018 19:14 5,4 C 4,4 C 3,9 C 95 % 15 lf 994,8 hPa 0,0 l/m 0 min 2 min 0 W/m 6,8 km/h (2 Bft) 97,87 %
01.01.2018 19:16 5,4 C 4,4 C 3,9 C 95 % 15 lf 994,8 hPa 0,0 l/m 0 min 2 min 0 W/m 9,0 km/h (2 Bft) 100,00 %
01.01.2018 19:18 5,4 C 4,4 C 3,9 C 95 % 15 lf 994,8 hPa 0,0 l/m 0 min 2 min 0 W/m 11,3 km/h (2 Bft) 100,00 %
01.01.2018 19:20 5,4 C 4,4 C 3,9 C 95 % 15 lf 994,8 hPa 0,0 l/m 0 min 2 min 0 W/m 6,8 km/h (2 Bft) 100,00 %
01.01.2018 19:22 5,3 C 4,4 C 3,9 C 95 % 15 lf 994,8 hPa 0,0 l/m 0 min 2 min 0 W/m 9,0 km/h (2 Bft) 97,87 %
01.01.2018 19:24 5,3 C 4,4 C 3,9 C 95 % 15 lf 994,8 hPa 0,0 l/m 0 min 2 min 0 W/m 6,8 km/h (2 Bft) 100,00 %
01.01.2018 19:26 5,3 C 4,4 C 3,9 C 95 % 15 lf 994,8 hPa 0,0 l/m 0 min 2 min 0 W/m 4,5 km/h (1 Bft) 97,83 %
01.01.2018 19:28 5,3 C 4,4 C 3,9 C 95 % 15 lf 994,9 hPa 0,0 l/m 0 min 2 min 0 W/m 6,8 km/h (2 Bft) 100,00 %
01.01.2018 19:30 5,3 C 4,4 C 3,9 C 95 % 15 lf 994,8 hPa 0,0 l/m 0 min 2 min 0 W/m 6,8 km/h (2 Bft) 97,87 %
01.01.2018 19:32 5,3 C 4,4 C 3,9 C 95 % 15 lf 994,9 hPa 0,0 l/m 0 min 2 min 0 W/m 4,5 km/h (1 Bft) 97,87 %
01.01.2018 19:34 5,3 C 4,4 C 3,9 C 95 % 15 lf 994,9 hPa 0,0 l/m 0 min 2 min 0 W/m 4,5 km/h (1 Bft) 95,74 %
01.01.2018 19:36 5,3 C 4,4 C 3,9 C 95 % 15 lf 994,9 hPa 0,2 l/m 0 min 2 min 0 W/m 2,3 km/h (1 Bft) 97,87 %
01.01.2018 19:38 5,3 C 4,4 C 3,9 C 95 % 15 lf 994,9 hPa 0,0 l/m 0 min 2 min 0 W/m 4,5 km/h (1 Bft) 97,83 %
01.01.2018 19:40 5,3 C 4,4 C 3,9 C 95 % 15 lf 994,9 hPa 0,0 l/m 0 min 2 min 0 W/m 4,5 km/h (1 Bft) 97,87 %
01.01.2018 19:42 5,3 C 4,4 C 3,9 C 95 % 15 lf 994,9 hPa 0,0 l/m 0 min 2 min 0 W/m 6,8 km/h (2 Bft) 95,74 %
01.01.2018 19:44 5,3 C 4,4 C 3,9 C 95 % 15 lf 994,9 hPa 0,0 l/m 0 min 2 min 0 W/m 6,8 km/h (2 Bft) 100,00 %
01.01.2018 19:46 5,3 C 4,4 C 3,9 C 95 % 15 lf 995,0 hPa 0,0 l/m 0 min 2 min 0 W/m 6,8 km/h (2 Bft) 97,87 %
01.01.2018 19:48 5,2 C 4,4 C 3,9 C 95 % 15 lf 995,0 hPa 0,0 l/m 0 min 2 min 0 W/m 2,3 km/h (1 Bft) 97,87 %
01.01.2018 19:50 5,2 C 4,4 C 3,9 C 95 % 15 lf 995,0 hPa 0,0 l/m 0 min 2 min 0 W/m 4,5 km/h (1 Bft) 95,65 %
01.01.2018 19:52 5,2 C 4,4 C 3,9 C 95 % 15 lf 995,0 hPa 0,0 l/m 0 min 2 min 0 W/m 2,3 km/h (1 Bft) 97,87 %
01.01.2018 19:54 5,2 C 4,4 C 3,9 C 95 % 15 lf 995,0 hPa 0,0 l/m 0 min 2 min 0 W/m 0,0 km/h (0 Bft) 97,87 %
01.01.2018 19:56 5,2 C 4,4 C 3,9 C 95 % 15 lf 995,0 hPa 0,2 l/m 0 min 2 min 0 W/m 0,0 km/h (0 Bft) 95,74 %
01.01.2018 19:58 5,2 C 4,4 C 3,9 C 95 % 15 lf 995,0 hPa 0,0 l/m 0 min 2 min 0 W/m 0,0 km/h (0 Bft) 95,74 %
01.01.2018 20:00 5,2 C 4,4 C 3,9 C 95 % 15 lf 995,0 hPa 0,0 l/m 0 min 2 min 0 W/m 0,0 km/h (0 Bft) 95,74 %
01.01.2018 20:02 5,2 C 4,4 C 3,9 C 95 % 15 lf 995,0 hPa 0,0 l/m 0 min 2 min 0 W/m 0,0 km/h (0 Bft) 95,65 %
01.01.2018 20:04 5,2 C 4,4 C 3,9 C 95 % 15 lf 995,0 hPa 0,0 l/m 0 min 2 min 0 W/m 0,0 km/h (0 Bft) 95,74 %
01.01.2018 20:06 5,2 C 4,4 C 3,9 C 95 % 15 lf 995,0 hPa 0,0 l/m 0 min 2 min 0 W/m 0,0 km/h (0 Bft) 100,00 %
01.01.2018 20:08 5,2 C 4,4 C 3,9 C 95 % 15 lf 995,0 hPa 0,0 l/m 0 min 2 min 0 W/m 0,0 km/h (0 Bft) 97,87 %
01.01.2018 20:10 5,2 C 4,4 C 3,9 C 95 % 15 lf 995,1 hPa 0,0 l/m 0 min 2 min 0 W/m 0,0 km/h (0 Bft) 95,74 %
01.01.2018 20:12 5,2 C 4,4 C 3,9 C 95 % 15 lf 995,1 hPa 0,0 l/m 0 min 2 min 0 W/m 0,0 km/h (0 Bft) 95,74 %
01.01.2018 20:14 5,2 C 4,4 C 3,9 C 95 % 15 lf 995,1 hPa 0,0 l/m 0 min 2 min 0 W/m 0,0 km/h (0 Bft) 93,48 %
01.01.2018 20:16 5,2 C 4,4 C 3,9 C 95 % 15 lf 995,2 hPa 0,0 l/m 0 min 2 min 0 W/m 0,0 km/h (0 Bft) 95,74 %
01.01.2018 20:18 5,2 C 4,4 C 3,9 C 95 % 15 lf 995,2 hPa 0,0 l/m 0 min 2 min 0 W/m 0,0 km/h (0 Bft) 89,36 %
01.01.2018 20:20 5,2 C 4,4 C 3,9 C 95 % 15 lf 995,3 hPa 0,0 l/m 0 min 2 min 0 W/m 0,0 km/h (0 Bft) 97,87 %
01.01.2018 20:22 5,2 C 4,4 C 3,9 C 95 % 15 lf 995,3 hPa 0,0 l/m 0 min 2 min 0 W/m 0,0 km/h (0 Bft) 97,87 %
01.01.2018 20:24 5,2 C 4,4 C 3,9 C 95 % 15 lf 995,3 hPa 0,0 l/m 0 min 2 min 0 W/m 0,0 km/h (0 Bft) 95,74 %
01.01.2018 20:26 5,2 C 4,4 C 3,9 C 95 % 15 lf 995,3 hPa 0,0 l/m 0 min 2 min 0 W/m 0,0 km/h (0 Bft) 95,65 %
01.01.2018 20:28 5,2 C 4,4 C 3,9 C 95 % 15 lf 995,3 hPa 0,0 l/m 0 min 2 min 0 W/m 0,0 km/h (0 Bft) 93,62 %
01.01.2018 20:30 5,2 C 4,4 C 3,9 C 95 % 15 lf 995,4 hPa 0,0 l/m 0 min 2 min 0 W/m 0,0 km/h (0 Bft) 95,74 %
01.01.2018 20:32 5,2 C 4,4 C 3,9 C 95 % 15 lf 995,4 hPa 0,0 l/m 0 min 2 min 0 W/m 0,0 km/h (0 Bft) 95,74 %
01.01.2018 20:34 5,2 C 4,4 C 3,9 C 96 % 15 lf 995,5 hPa 0,2 l/m 0 min 2 min 0 W/m 0,0 km/h (0 Bft) 95,74 %
01.01.2018 20:36 5,2 C 4,4 C 3,9 C 96 % 15 lf 995,6 hPa 0,0 l/m 0 min 2 min 0 W/m 0,0 km/h (0 Bft) 95,65 %
01.01.2018 20:38 5,2 C 4,4 C 3,9 C 96 % 15 lf 995,6 hPa 0,0 l/m 0 min 2 min 0 W/m 0,0 km/h (0 Bft) 95,74 %
01.01.2018 20:40 5,2 C 4,4 C 3,9 C 96 % 15 lf 995,6 hPa 0,0 l/m 0 min 2 min 0 W/m 0,0 km/h (0 Bft) 93,62 %
01.01.2018 20:42 5,2 C 4,4 C 3,9 C 95 % 15 lf 995,6 hPa 0,0 l/m 0 min 2 min 0 W/m 0,0 km/h (0 Bft) 93,62 %
01.01.2018 20:44 5,2 C 4,4 C 3,9 C 95 % 15 lf 995,7 hPa 0,0 l/m 0 min 2 min 0 W/m 0,0 km/h (0 Bft) 95,74 %
01.01.2018 20:46 5,2 C 4,4 C 3,9 C 95 % 15 lf 995,7 hPa 0,0 l/m 0 min 2 min 0 W/m 0,0 km/h (0 Bft) 93,62 %
01.01.2018 20:48 5,2 C 4,4 C 3,9 C 95 % 15 lf 995,7 hPa 0,0 l/m 0 min 2 min 0 W/m 0,0 km/h (0 Bft) 93,48 %
01.01.2018 20:50 5,2 C 4,4 C 3,9 C 95 % 15 lf 995,8 hPa 0,0 l/m 0 min 2 min 0 W/m 0,0 km/h (0 Bft) 93,62 %
01.01.2018 20:52 5,2 C 4,4 C 3,9 C 95 % 15 lf 995,8 hPa 0,0 l/m 0 min 2 min 0 W/m 0,0 km/h (0 Bft) 91,49 %
01.01.2018 20:54 5,2 C 4,4 C 3,9 C 95 % 15 lf 995,8 hPa 0,0 l/m 0 min 2 min 0 W/m 0,0 km/h (0 Bft) 93,62 %
01.01.2018 20:56 5,2 C 4,4 C 3,9 C 95 % 15 lf 995,8 hPa 0,0 l/m 0 min 2 min 0 W/m 0,0 km/h (0 Bft) 93,62 %
01.01.2018 20:58 5,2 C 4,4 C 3,9 C 95 % 15 lf 995,8 hPa 0,0 l/m 0 min 2 min 0 W/m 0,0 km/h (0 Bft) 93,62 %
01.01.2018 21:00 5,2 C 4,4 C 3,9 C 95 % 15 lf 995,9 hPa 0,0 l/m 0 min 2 min 0 W/m 0,0 km/h (0 Bft) 93,48 %
01.01.2018 21:02 5,1 C 4,4 C 3,9 C 95 % 15 lf 995,9 hPa 0,0 l/m 0 min 2 min 0 W/m 0,0 km/h (0 Bft) 93,62 %
01.01.2018 21:04 5,1 C 4,4 C 3,9 C 95 % 15 lf 996,0 hPa 0,0 l/m 0 min 2 min 0 W/m 0,0 km/h (0 Bft) 93,62 %
01.01.2018 21:06 5,2 C 4,4 C 3,9 C 95 % 15 lf 996,0 hPa 0,0 l/m 0 min 2 min 0 W/m 0,0 km/h (0 Bft) 95,74 %
01.01.2018 21:08 5,2 C 4,4 C 3,9 C 95 % 15 lf 996,0 hPa 0,0 l/m 0 min 2 min 0 W/m 0,0 km/h (0 Bft) 89,36 %
01.01.2018 21:10 5,2 C 4,4 C 3,9 C 95 % 15 lf 996,1 hPa 0,0 l/m 0 min 2 min 0 W/m 0,0 km/h (0 Bft) 93,62 %
01.01.2018 21:12 5,2 C 4,4 C 3,9 C 95 % 15 lf 996,1 hPa 0,0 l/m 0 min 2 min 0 W/m 0,0 km/h (0 Bft) 97,83 %
01.01.2018 21:14 5,2 C 5,0 C 3,9 C 95 % 15 lf 996,2 hPa 0,0 l/m 0 min 2 min 0 W/m 0,0 km/h (0 Bft) 93,62 %
01.01.2018 21:16 5,2 C 5,0 C 3,9 C 95 % 15 lf 996,3 hPa 0,0 l/m 0 min 2 min 0 W/m 0,0 km/h (0 Bft) 95,74 %
01.01.2018 21:18 5,2 C 4,4 C 3,9 C 96 % 15 lf 996,3 hPa 0,0 l/m 0 min 2 min 0 W/m 6,8 km/h (2 Bft) 95,74 %
01.01.2018 21:20 5,2 C 4,4 C 3,9 C 96 % 15 lf 996,4 hPa 0,0 l/m 0 min 2 min 0 W/m 4,5 km/h (1 Bft) 97,87 %
01.01.2018 21:22 5,2 C 4,4 C 3,9 C 96 % 15 lf 996,4 hPa 0,2 l/m 0 min 2 min 0 W/m 4,5 km/h (1 Bft) 97,87 %
01.01.2018 21:24 5,2 C 5,0 C 3,9 C 96 % 15 lf 996,5 hPa 0,0 l/m 0 min 2 min 0 W/m 6,8 km/h (2 Bft) 93,48 %
01.01.2018 21:26 5,2 C 5,0 C 3,9 C 96 % 15 lf 996,5 hPa 0,0 l/m 0 min 0 min 0 W/m 6,8 km/h (2 Bft) 91,49 %
01.01.2018 21:28 5,2 C 5,0 C 3,9 C 96 % 15 lf 996,5 hPa 0,0 l/m 0 min 0 min 0 W/m 6,8 km/h (2 Bft) 93,62 %
01.01.2018 21:30 5,2 C 5,0 C 3,9 C 96 % 15 lf 996,5 hPa 0,0 l/m 0 min 2 min 0 W/m 6,8 km/h (2 Bft) 93,62 %
01.01.2018 21:32 5,2 C 5,0 C 3,9 C 96 % 15 lf 996,6 hPa 0,0 l/m 0 min 0 min 0 W/m 13,5 km/h (3 Bft) 95,74 %
01.01.2018 21:34 5,2 C 5,0 C 3,9 C 96 % 15 lf 996,7 hPa 0,0 l/m 0 min 0 min 0 W/m 13,5 km/h (3 Bft) 95,74 %
01.01.2018 21:36 5,2 C 5,0 C 3,9 C 96 % 15 lf 996,7 hPa 0,0 l/m 0 min 0 min 0 W/m 9,0 km/h (2 Bft) 95,65 %
01.01.2018 21:38 5,2 C 5,0 C 3,9 C 96 % 15 lf 996,7 hPa 0,0 l/m 0 min 2 min 0 W/m 11,3 km/h (2 Bft) 97,87 %
01.01.2018 21:40 5,2 C 5,0 C 3,9 C 96 % 15 lf 996,8 hPa 0,0 l/m 0 min 2 min 0 W/m 13,5 km/h (3 Bft) 97,87 %
01.01.2018 21:42 5,2 C 5,0 C 3,9 C 96 % 15 lf 996,8 hPa 0,0 l/m 0 min 2 min 0 W/m 18,0 km/h (3 Bft) 97,87 %
01.01.2018 21:44 5,2 C 5,0 C 3,9 C 96 % 15 lf 996,9 hPa 0,0 l/m 0 min 2 min 0 W/m 15,8 km/h (3 Bft) 95,74 %
01.01.2018 21:46 5,2 C 5,0 C 3,9 C 96 % 15 lf 996,9 hPa 0,0 l/m 0 min 2 min 0 W/m 15,8 km/h (3 Bft) 97,83 %
01.01.2018 21:48 5,3 C 5,0 C 3,9 C 96 % 15 lf 997,0 hPa 0,0 l/m 0 min 2 min 0 W/m 15,8 km/h (3 Bft) 97,87 %
01.01.2018 21:50 5,3 C 5,0 C 3,9 C 96 % 15 lf 997,1 hPa 0,0 l/m 0 min 0 min 0 W/m 24,8 km/h (4 Bft) 97,87 %
01.01.2018 21:52 5,3 C 5,0 C 3,9 C 96 % 15 lf 997,1 hPa 0,0 l/m 0 min 0 min 0 W/m 22,5 km/h (4 Bft) 100,00 %
01.01.2018 21:54 5,3 C 5,0 C 3,9 C 96 % 15 lf 997,2 hPa 0,0 l/m 0 min 2 min 0 W/m 20,3 km/h (4 Bft) 100,00 %
01.01.2018 21:56 5,3 C 5,0 C 3,9 C 96 % 15 lf 997,2 hPa 0,0 l/m 0 min 2 min 0 W/m 27,0 km/h (4 Bft) 100,00 %
01.01.2018 21:58 5,2 C 5,0 C 3,9 C 96 % 15 lf 997,3 hPa 0,0 l/m 0 min 2 min 0 W/m 18,0 km/h (3 Bft) 100,00 %
01.01.2018 22:00 5,2 C 5,0 C 3,9 C 96 % 15 lf 997,4 hPa 0,0 l/m 0 min 2 min 0 W/m 20,3 km/h (4 Bft) 100,00 %
01.01.2018 22:02 5,2 C 5,0 C 3,9 C 96 % 15 lf 997,4 hPa 0,0 l/m 0 min 2 min 0 W/m 20,3 km/h (4 Bft) 100,00 %
01.01.2018 22:04 5,2 C 4,4 C 3,9 C 96 % 15 lf 997,5 hPa 0,0 l/m 0 min 2 min 0 W/m 22,5 km/h (4 Bft) 100,00 %
01.01.2018 22:06 5,2 C 4,4 C 3,9 C 96 % 15 lf 997,6 hPa 0,0 l/m 0 min 2 min 0 W/m 24,8 km/h (4 Bft) 97,87 %
01.01.2018 22:08 5,2 C 4,4 C 3,9 C 96 % 15 lf 997,6 hPa 0,0 l/m 0 min 2 min 0 W/m 24,8 km/h (4 Bft) 100,00 %
01.01.2018 22:10 5,2 C 4,4 C 3,9 C 96 % 15 lf 997,7 hPa 0,0 l/m 0 min 2 min 0 W/m 24,8 km/h (4 Bft) 100,00 %
01.01.2018 22:12 5,2 C 4,4 C 3,9 C 96 % 15 lf 997,8 hPa 0,0 l/m 0 min 2 min 0 W/m 24,8 km/h (4 Bft) 100,00 %
01.01.2018 22:14 5,2 C 5,0 C 3,9 C 96 % 15 lf 997,9 hPa 0,0 l/m 0 min 2 min 0 W/m 20,3 km/h (4 Bft) 95,74 %
01.01.2018 22:16 5,2 C 5,0 C 3,9 C 96 % 15 lf 997,9 hPa 0,2 l/m 0 min 2 min 0 W/m 20,3 km/h (4 Bft) 100,00 %
01.01.2018 22:18 5,2 C 5,0 C 3,9 C 96 % 15 lf 997,9 hPa 0,0 l/m 0 min 2 min 0 W/m 15,8 km/h (3 Bft) 100,00 %
01.01.2018 22:20 5,2 C 5,0 C 3,9 C 96 % 15 lf 997,9 hPa 0,0 l/m 0 min 2 min 0 W/m 27,0 km/h (4 Bft) 95,74 %
01.01.2018 22:22 5,2 C 4,4 C 3,9 C 96 % 15 lf 998,0 hPa 0,0 l/m 0 min 2 min 0 W/m 24,8 km/h (4 Bft) 100,00 %
01.01.2018 22:24 5,2 C 4,4 C 3,9 C 96 % 15 lf 998,1 hPa 0,0 l/m 0 min 2 min 0 W/m 33,8 km/h (5 Bft) 97,87 %
01.01.2018 22:26 5,2 C 4,4 C 3,9 C 96 % 15 lf 998,1 hPa 0,0 l/m 0 min 2 min 0 W/m 29,3 km/h (5 Bft) 100,00 %
01.01.2018 22:28 5,2 C 4,4 C 3,9 C 96 % 15 lf 998,3 hPa 0,2 l/m 0 min 2 min 0 W/m 29,3 km/h (5 Bft) 100,00 %
01.01.2018 22:30 5,1 C 4,4 C 3,9 C 96 % 15 lf 998,3 hPa 0,0 l/m 0 min 2 min 0 W/m 27,0 km/h (4 Bft) 97,87 %
01.01.2018 22:32 5,1 C 4,4 C 3,9 C 96 % 15 lf 998,5 hPa 0,0 l/m 0 min 2 min 0 W/m 20,3 km/h (4 Bft) 97,87 %
01.01.2018 22:34 5,1 C 4,4 C 3,9 C 96 % 15 lf 998,5 hPa 0,0 l/m 0 min 2 min 0 W/m 18,0 km/h (3 Bft) 100,00 %
01.01.2018 22:36 5,1 C 4,4 C 3,9 C 96 % 15 lf 998,6 hPa 0,0 l/m 0 min 2 min 0 W/m 27,0 km/h (4 Bft) 100,00 %
01.01.2018 22:38 5,1 C 4,4 C 3,9 C 96 % 15 lf 998,6 hPa 0,0 l/m 0 min 2 min 0 W/m 24,8 km/h (4 Bft) 100,00 %
01.01.2018 22:40 5,1 C 4,4 C 3,9 C 97 % 15 lf 998,7 hPa 0,0 l/m 0 min 2 min 0 W/m 31,5 km/h (5 Bft) 100,00 %
01.01.2018 22:42 5,0 C 4,4 C 3,9 C 97 % 15 lf 998,7 hPa 0,0 l/m 0 min 2 min 0 W/m 24,8 km/h (4 Bft) 100,00 %
01.01.2018 22:44 5,0 C 4,4 C 3,9 C 96 % 15 lf 998,8 hPa 0,0 l/m 0 min 2 min 0 W/m 27,0 km/h (4 Bft) 100,00 %
01.01.2018 22:46 5,0 C 4,4 C 3,9 C 96 % 15 lf 998,9 hPa 0,0 l/m 0 min 2 min 0 W/m 22,5 km/h (4 Bft) 95,65 %
01.01.2018 22:48 5,0 C 4,4 C 3,9 C 96 % 15 lf 999,0 hPa 0,2 l/m 0 min 2 min 0 W/m 29,3 km/h (5 Bft) 97,87 %
01.01.2018 22:50 4,9 C 4,4 C 3,3 C 96 % 15 lf 999,1 hPa 0,0 l/m 0 min 2 min 0 W/m 33,8 km/h (5 Bft) 100,00 %
01.01.2018 22:52 4,9 C 4,4 C 3,3 C 96 % 15 lf 999,1 hPa 0,0 l/m 0 min 2 min 0 W/m 29,3 km/h (5 Bft) 100,00 %
01.01.2018 22:54 4,9 C 4,4 C 3,3 C 96 % 15 lf 999,2 hPa 0,0 l/m 0 min 2 min 0 W/m 36,0 km/h (5 Bft) 100,00 %
01.01.2018 22:56 4,9 C 4,4 C 3,3 C 96 % 15 lf 999,4 hPa 0,0 l/m 0 min 2 min 0 W/m 31,5 km/h (5 Bft) 95,65 %
01.01.2018 22:58 4,8 C 4,4 C 3,3 C 96 % 15 lf 999,4 hPa 0,0 l/m 0 min 2 min 0 W/m 22,5 km/h (4 Bft) 100,00 %
01.01.2018 23:00 4,8 C 4,4 C 3,3 C 96 % 15 lf 999,4 hPa 0,0 l/m 0 min 2 min 0 W/m 27,0 km/h (4 Bft) 100,00 %
01.01.2018 23:02 4,8 C 4,4 C 3,3 C 97 % 15 lf 999,6 hPa 0,0 l/m 0 min 2 min 0 W/m 22,5 km/h (4 Bft) 100,00 %
01.01.2018 23:04 4,8 C 4,4 C 3,3 C 97 % 15 lf 999,6 hPa 0,2 l/m 0 min 2 min 0 W/m 29,3 km/h (5 Bft) 93,62 %
01.01.2018 23:06 4,8 C 4,4 C 3,3 C 97 % 15 lf 999,7 hPa 0,0 l/m 0 min 2 min 0 W/m 24,8 km/h (4 Bft) 97,87 %
01.01.2018 23:08 4,8 C 4,4 C 3,3 C 97 % 15 lf 999,8 hPa 0,0 l/m 0 min 2 min 0 W/m 27,0 km/h (4 Bft) 97,83 %
01.01.2018 23:10 4,7 C 4,4 C 3,3 C 97 % 15 lf 999,7 hPa 0,0 l/m 0 min 2 min 0 W/m 27,0 km/h (4 Bft) 95,74 %
01.01.2018 23:12 4,7 C 3,9 C 3,3 C 97 % 15 lf 999,8 hPa 0,0 l/m 0 min 2 min 0 W/m 31,5 km/h (5 Bft) 93,62 %
01.01.2018 23:14 4,7 C 4,4 C 3,3 C 96 % 15 lf 999,9 hPa 0,0 l/m 0 min 2 min 0 W/m 27,0 km/h (4 Bft) 95,74 %
01.01.2018 23:16 4,7 C 3,9 C 3,3 C 96 % 15 lf 1000,0 hPa 0,0 l/m 0 min 2 min 0 W/m 31,5 km/h (5 Bft) 93,62 %
01.01.2018 23:18 4,7 C 3,9 C 3,3 C 96 % 15 lf 1000,1 hPa 0,0 l/m 0 min 2 min 0 W/m 31,5 km/h (5 Bft) 95,74 %
01.01.2018 23:20 4,6 C 3,9 C 3,3 C 96 % 15 lf 1000,2 hPa 0,0 l/m 0 min 2 min 0 W/m 31,5 km/h (5 Bft) 91,30 %
01.01.2018 23:22 4,6 C 3,9 C 3,3 C 96 % 15 lf 1000,2 hPa 0,2 l/m 0 min 2 min 0 W/m 20,3 km/h (4 Bft) 95,74 %
01.01.2018 23:24 4,6 C 3,9 C 3,3 C 96 % 15 lf 1000,2 hPa 0,0 l/m 0 min 2 min 0 W/m 24,8 km/h (4 Bft) 95,74 %
01.01.2018 23:26 4,6 C 3,9 C 3,3 C 96 % 15 lf 1000,2 hPa 0,0 l/m 0 min 2 min 0 W/m 24,8 km/h (4 Bft) 97,87 %
01.01.2018 23:28 4,6 C 3,9 C 3,3 C 96 % 15 lf 1000,3 hPa 0,0 l/m 0 min 2 min 0 W/m 27,0 km/h (4 Bft) 95,74 %
01.01.2018 23:30 4,6 C 3,9 C 3,3 C 96 % 15 lf 1000,3 hPa 0,2 l/m 0 min 2 min 0 W/m 15,8 km/h (3 Bft) 95,74 %
01.01.2018 23:32 4,6 C 3,9 C 3,3 C 96 % 15 lf 1000,4 hPa 0,0 l/m 0 min 2 min 0 W/m 24,8 km/h (4 Bft) 95,65 %
01.01.2018 23:34 4,6 C 3,9 C 3,3 C 96 % 15 lf 1000,4 hPa 0,0 l/m 0 min 2 min 0 W/m 22,5 km/h (4 Bft) 95,74 %
01.01.2018 23:36 4,6 C 3,9 C 3,3 C 96 % 15 lf 1000,4 hPa 0,0 l/m 0 min 2 min 0 W/m 24,8 km/h (4 Bft) 95,74 %
01.01.2018 23:38 4,6 C 3,9 C 3,3 C 96 % 15 lf 1000,6 hPa 0,0 l/m 0 min 2 min 0 W/m 18,0 km/h (3 Bft) 95,74 %
01.01.2018 23:40 4,6 C 4,4 C 3,3 C 96 % 15 lf 1000,6 hPa 0,0 l/m 0 min 2 min 0 W/m 15,8 km/h (3 Bft) 95,74 %
01.01.2018 23:42 4,6 C 4,4 C 3,3 C 96 % 15 lf 1000,7 hPa 0,0 l/m 0 min 2 min 0 W/m 20,3 km/h (4 Bft) 93,62 %
01.01.2018 23:44 4,6 C 4,4 C 3,3 C 97 % 15 lf 1000,7 hPa 0,0 l/m 0 min 2 min 0 W/m 18,0 km/h (3 Bft) 91,30 %
01.01.2018 23:46 4,6 C 4,4 C 3,3 C 97 % 15 lf 1000,8 hPa 0,0 l/m 0 min 2 min 0 W/m 22,5 km/h (4 Bft) 91,49 %
01.01.2018 23:48 4,6 C 4,4 C 3,3 C 97 % 15 lf 1000,8 hPa 0,0 l/m 0 min 2 min 0 W/m 31,5 km/h (5 Bft) 93,62 %
01.01.2018 23:50 4,7 C 4,4 C 3,3 C 97 % 15 lf 1000,8 hPa 0,0 l/m 0 min 2 min 0 W/m 22,5 km/h (4 Bft) 97,87 %
01.01.2018 23:52 4,7 C 4,4 C 3,3 C 97 % 15 lf 1000,8 hPa 0,0 l/m 0 min 2 min 0 W/m 22,5 km/h (4 Bft) 95,74 %
01.01.2018 23:54 4,7 C 4,4 C 3,3 C 97 % 15 lf 1000,9 hPa 0,0 l/m 0 min 2 min 0 W/m 31,5 km/h (5 Bft) 95,74 %
01.01.2018 23:56 4,7 C 4,4 C 3,3 C 97 % 15 lf 1000,9 hPa 0,2 l/m 0 min 2 min 0 W/m 15,8 km/h (3 Bft) 95,65 %
01.01.2018 23:58 4,7 C 4,4 C 3,3 C 97 % 15 lf 1000,9 hPa 0,0 l/m 0 min 2 min 0 W/m 18,0 km/h (3 Bft) 97,87 %
_ Min-Zeit 23:20 23:12 22:50 13:20 00:42 18:48 - - - - 19:54 10:02
Minimum _ 4,6 C 3,9 C 3,3 C 78 % 0 lf 994,6 hPa - - - - 0,0 km/h (0 Bft) 86,11 %
_ Max-Zeit 12:44 11:46 12:40 22:40 00:00 09:46 01:12 09:50 02:08 12:16 04:38 00:44
Maximum _ 8,7 C 13,3 C 8,3 C 97 % 15 lf 1002,9 hPa 0,2 l/m 2 min 4 min 280 W/m 76,6 km/h
W-SW (9 Bft)
100,00 %
Durchschnitt _ 6,9 C 6,7 C 5,3 C 87 % 6 lf 998,9 hPa #7,0 l/m #2:40 h #10:58 h 91 W/m 30,5 km/h (5 Bft) 96,48 %
© 2018 W. Hausmann